[{"header": {"dx": 0.06612293990616946, "dy": 0.0552356325346848, "nx": 98, "ny": 59, "la1": 35.046912555036876, "la2": 31.78801023549047, "lo1": -121.43107172385933, "lo2": -114.95102361305473, "refTime": "2026040815", "parameterCategory": 1, "parameterNumber": 2}, "data": [5.02, 5.28, 5.15, 4.81, 4.52, 4.74, 5.15, 5.31, 4.52, 5.18, 4.38, 0.0, 0.0, -2.6, -5.06, -6.64, -6.95, -7.64, -7.07, -7.6, -8.17, -8.49, -7.15, -6.51, -6.16, -5.6, -5.81, -6.14, -6.14, -6.07, -5.64, -5.09, -5.36, -5.36, 5.36, 5.81, 6.26, 6.51, 6.36, 7.15, 6.79, 8.05, 9.64, 8.93, 10.24, 11.88, 13.89, 13.88, 13.8, 11.6, 10.8, -0.0, 3.39, 5.7, 6.17, 7.27, 7.9, 9.2, 10.05, 10.18, 9.97, 10.18, 9.83, 9.39, 7.81, 7.06, 6.94, 7.89, 9.26, 10.6, 11.49, 9.79, 8.94, 8.49, 8.49, 8.49, 9.39, 10.69, 11.28, 9.33, 6.26, 4.92, 4.92, 4.92, 0.0, 0.0, 4.92, 5.81, 5.09, 6.13, 6.55, 5.82, 6.11, 6.01, 5.59, 5.1, 2.54, 0.0, 5.02, 5.28, 4.87, 5.15, 5.14, 5.5, 4.89, 4.89, 5.48, 4.66, 3.25, 2.63, 0.0, 0.0, 0.0, -4.4, -5.72, -7.27, -7.33, -7.07, -8.8, -8.79, -7.97, -7.6, -5.75, -6.0, -5.75, -6.58, -6.71, -6.71, -6.71, -6.14, -6.07, -4.84, -0.0, 5.6, 7.15, 7.15, 7.5, 7.06, 7.81, 9.13, 9.09, 8.53, 10.43, 12.42, 14.15, 13.74, 13.01, 12.39, -0.0, 3.39, 7.27, 5.9, 6.14, 7.27, 8.37, 9.2, 9.8, 10.18, 10.04, 9.54, 9.21, 9.21, 7.47, 7.31, 7.37, 8.33, 9.24, 10.45, 10.93, 10.7, 9.39, 8.49, 8.05, 8.49, 9.83, 10.69, 11.28, 9.33, 6.26, 4.92, 4.92, 4.92, 0.0, 0.0, 4.92, 5.81, 5.09, 6.13, 6.55, 5.82, 6.11, 6.01, 5.59, 5.1, 2.54, 0.0, 5.63, 5.02, 5.28, 4.87, 5.63, 5.3, 5.67, 6.1, 5.19, 5.48, 3.96, 1.45, 0.0, 0.0, 2.39, 0.0, -3.11, -5.72, -6.69, -7.56, -7.06, -8.37, -9.2, -8.22, -8.05, -6.36, -5.75, -6.0, -7.15, -7.21, -7.31, -7.31, -7.15, -7.15, -0.0, 7.6, 7.15, 7.97, 7.95, 7.28, 6.95, 7.44, 9.49, 10.47, 11.67, 11.67, 13.01, 11.18, 10.12, -4.8, -0.0, 5.46, 5.46, 5.9, 5.86, 7.56, 8.0, 9.2, 9.4, 9.85, 9.85, 9.6, 8.63, 8.0, 6.99, 6.4, 7.63, 8.63, 9.54, 10.45, 10.93, 11.06, 10.73, 9.24, 8.56, 8.14, 10.16, 12.03, 11.3, 5.95, 0.0, 0.0, 0.0, -2.4, -2.48, -2.84, 0.0, 4.11, 5.6, 6.99, 8.12, 7.59, 6.17, 6.4, 5.86, 5.69, 3.2, 0.0, 5.63, 5.02, 5.45, 5.55, 5.31, 5.81, 5.46, 5.85, 5.85, 4.89, 3.29, 2.33, 0.0, 0.0, 2.02, 2.02, 0.0, -4.8, -6.44, -7.27, -7.15, -7.44, -9.1, -10.04, -9.36, -8.41, -7.08, -6.64, -6.79, -6.8, -5.69, -6.73, -6.79, -6.79, 0.0, 7.2, 8.0, 8.8, 8.03, 8.12, 9.22, 10.35, 10.48, 9.79, 9.67, 10.15, 7.9, 3.39, -3.65, -0.0, 2.17, 4.2, 4.2, 4.83, 6.01, 7.21, 8.0, 8.8, 9.4, 9.85, 9.64, 9.33, 8.15, 7.28, 6.82, 7.03, 8.3, 8.14, 8.8, 10.27, 11.37, 12.39, 12.07, 8.99, 7.15, 7.06, 9.36, 12.14, 12.33, 0.0, -1.41, -1.41, -1.55, -2.95, -3.48, -4.09, 0.0, 4.46, 5.84, 8.47, 9.42, 7.59, 6.48, 6.11, 6.44, 6.36, 5.94, 4.11, 5.63, 5.63, 5.18, 5.45, 5.73, 5.48, 5.99, 6.37, 5.46, 5.5, 3.96, 2.95, 1.84, 0.0, 0.0, 0.0, 0.0, 0.0, -5.54, -7.36, -8.24, -7.44, -8.15, -9.6, -9.6, -9.2, -8.06, -8.49, -7.6, -2.4, -2.69, -4.83, -6.45, -5.63, 0.0, 2.6, 3.77, 7.24, 8.99, 9.55, 10.23, 10.32, 8.95, 9.3, 9.4, 9.3, 8.72, 9.11, 3.8, 5.1, 5.36, 5.36, 5.36, 5.59, 6.64, 7.21, 8.15, 8.54, 8.99, 9.42, 9.64, 9.21, 7.64, 6.45, 6.79, 8.0, 7.76, 7.03, 7.41, 9.05, 10.63, 12.52, 12.51, 11.62, 4.14, 3.6, 6.64, 8.8, 10.8, -4.15, -2.2, -1.83, -2.53, -3.91, -4.43, -2.76, 1.05, 5.06, 6.95, 9.42, 8.82, 7.51, 6.32, 4.74, 5.6, 6.26, 5.81, 5.75, 5.38, 5.38, 5.81, 5.18, 5.45, 5.91, 5.64, 5.99, 6.37, 5.14, 3.55, 3.36, 3.25, 2.02, 1.76, 0.0, 0.0, 0.0, -1.64, -5.86, -8.37, -8.12, -9.08, -9.3, -8.37, -8.0, -6.64, -4.6, -3.32, -1.84, 0.0, 0.0, -1.84, -3.11, -0.74, 0.69, 2.31, 7.13, 10.32, 9.55, 6.35, 5.45, 7.9, 10.5, 10.93, 11.23, 10.45, 9.79, 9.29, 8.91, 8.3, 7.67, 6.98, 6.32, 7.33, 7.81, 8.15, 8.15, 9.33, 9.49, 9.64, 8.63, 7.28, 6.11, 6.79, 8.0, 7.42, 5.82, 6.18, 7.44, 9.77, 10.58, 10.73, 11.2, 11.62, 1.84, 2.49, 4.43, 5.2, -2.97, -1.84, -1.73, -2.51, -3.4, -2.54, -0.77, 0.77, 4.78, 7.14, 6.86, 6.64, 7.27, 5.69, 0.0, 0.0, 5.6, 6.16, 7.07, 5.38, 5.38, 5.38, 5.18, 5.35, 6.09, 6.43, 6.43, 5.99, 5.28, 4.01, 2.83, 4.6, 6.17, 8.22, 3.82, 1.84, 0.0, 0.0, -4.48, -6.56, -8.31, -8.72, -8.18, -6.85, -5.55, -5.73, -3.41, -3.34, -3.49, -1.93, 2.83, 5.63, 2.04, 0.0, 0.0, 0.79, 5.73, 8.23, 6.36, 3.85, 1.33, 2.72, 7.51, 10.41, 11.2, 11.62, 10.25, 9.64, 10.28, 9.83, 8.48, 8.4, 8.4, 8.4, 8.4, 8.63, 8.79, 9.6, 9.68, 9.64, 8.63, 7.76, 6.6, 5.82, 6.8, 7.35, 7.12, 6.88, 7.11, 9.34, 9.21, 8.99, 10.7, 11.98, 10.6, 0.0, 0.0, 3.48, 4.11, 0.0, 0.0, -0.78, -1.56, -0.8, 0.0, 1.64, 3.06, 4.8, 4.4, 5.45, 5.1, 0.0, -5.94, 0.0, 4.43, 6.55, 7.37, 5.45, 5.38, 5.55, 5.72, 5.51, 5.79, 6.09, 6.43, 6.24, 4.81, 3.61, 2.11, 3.25, 5.75, 10.8, 9.2, 7.26, 5.6, 3.04, 0.0, -1.55, -2.72, -3.68, -7.0, -6.62, -4.66, -4.81, -6.02, -7.68, -6.7, -5.32, -1.91, 2.37, 5.2, 3.29, 1.46, 0.76, 2.41, 4.66, 5.2, 3.68, 3.41, 2.28, 4.79, 6.19, 6.9, 7.18, 8.67, 8.8, 9.45, 8.85, 9.39, 8.91, 8.63, 8.63, 8.63, 8.79, 9.21, 9.34, 9.79, 9.34, 9.29, 7.94, 6.23, 6.08, 7.2, 8.33, 8.49, 7.1, 6.94, 8.01, 8.49, 9.34, 11.0, 10.96, 10.73, 8.91, 4.84, 5.81, 9.33, 6.87, 1.52, 0.0, 0.0, 0.0, 0.76, 0.86, 0.0, 0.0, 4.2, 0.0, -2.2, -5.4, -5.6, 0.0, 4.43, 7.28, 6.91, 5.63, 5.81, 5.55, 5.72, 6.17, 6.17, 6.47, 6.8, 6.05, 5.29, 3.98, 2.65, 1.61, 1.29, 4.39, 6.94, 6.94, 6.43, 6.43, 5.6, 3.04, 3.14, 4.81, 3.04, 0.0, -3.68, -4.4, -7.96, -10.47, -7.19, -3.47, -1.15, 0.0, 2.4, 2.34, 1.77, 1.18, 1.33, 3.11, 4.05, 3.34, 4.38, 4.38, 3.14, 3.32, 1.84, 2.28, 4.8, 6.53, 7.76, 8.8, 8.94, 9.26, 9.03, 8.79, 8.91, 8.99, 9.21, 9.35, 9.39, 9.39, 8.49, 6.26, 3.4, 2.83, 8.3, 8.94, 9.39, 7.98, 7.31, 8.0, 8.82, 10.45, 11.18, 10.35, 8.94, 7.52, 7.98, 10.28, 12.07, 10.37, 2.67, 2.26, 2.23, 2.28, 2.49, 2.49, 0.0, -2.4, -2.73, -4.47, -4.57, -5.2, -3.76, 1.52, 4.43, 6.79, 5.69, 5.81, 5.81, 5.99, 5.72, 5.9, 6.17, 6.17, 6.47, 6.4, 4.84, 4.66, 4.84, 4.06, 1.72, 1.15, 2.4, 4.11, 4.24, 2.02, 1.83, 0.0, 0.0, 6.0, 11.6, 10.0, -0.0, -7.07, -6.98, -9.22, -5.55, 0.0, 0.0, 0.0, 0.0, 0.0, 0.0, 2.21, 2.99, 3.8, 4.4, 2.6, 3.68, 3.55, 4.74, -0.0, 4.0, 2.33, 1.77, 3.42, 4.2, 5.69, 8.33, 8.85, 8.37, 8.91, 8.58, 8.99, 9.34, 9.34, 9.39, 8.49, 7.52, 8.05, -0.0, 2.83, 7.47, 8.49, 8.49, 8.05, 7.74, 8.06, 9.4, 11.03, 11.18, 10.25, 9.35, 8.89, 8.29, 9.35, 11.59, 12.66, 6.67, 3.8, 4.29, 5.21, 5.75, 6.71, 5.51, 3.79, -0.0, -2.84, -4.46, -2.4, -1.23, 1.23, 3.72, 5.44, 4.87, 5.81, 5.81, 5.99, 5.72, 5.72, 5.9, 6.17, 6.28, 5.9, 5.6, 5.33, 6.07, 6.9, 6.2, 2.56, 2.35, 3.9, 3.92, 3.42, 2.31, 0.0, 0.0, 0.0, 6.0, 11.62, 8.94, -3.25, -4.6, -8.1, -3.1, 0.0, 0.0, -5.2, 0.0, 0.0, 0.0, 0.0, 0.0, -0.0, -0.0, 7.6, 0.0, 7.15, -0.0, -0.0, -0.0, 0.0, 0.0, 0.0, -1.0, 0.0, 8.06, 8.17, 8.37, 7.76, 8.22, 9.11, 9.39, 9.39, 8.9, 8.77, 7.31, 8.94, -0.0, 3.8, 7.2, 7.89, 8.9, 7.55, 7.2, 8.21, 9.34, 10.95, 10.89, 10.6, 10.62, 8.91, 8.58, 8.4, 10.32, 11.34, 10.41, 5.2, 7.68, 7.97, 6.26, 7.48, 7.01, 5.75, 4.92, 4.47, 2.0, 0.0, 1.41, 3.22, 3.72, 4.75, 3.68, 5.81, 5.81, 5.81, 5.99, 5.72, 5.72, 6.17, 6.6, 6.48, 6.07, 5.52, 6.27, 7.58, 9.24, 9.48, 6.94, 6.08, 5.92, 7.0, 6.19, 5.99, 3.68, 0.0, 0.0, 7.15, 6.71, -6.26, -3.2, -2.2, -4.74, -6.01, -6.0, -2.8, -1.3, 7.27, 0.0, -5.7, -7.63, -7.63, -8.06, -6.7, -8.05, 7.6, 7.6, 5.06, -5.6, -7.15, -5.06, -4.22, -4.83, -2.4, 2.54, 8.05, 7.2, 7.6, 8.24, 8.94, 9.33, 8.91, 8.4, 7.82, 8.0, -0.0, -2.83, 4.96, 6.7, 7.6, 8.63, 8.44, 6.99, 7.44, 9.36, 10.18, 9.85, 10.12, 10.89, 10.18, 8.43, 8.55, 9.9, 9.58, 9.04, 6.95, 6.64, 8.06, 8.44, 8.9, 9.8, 8.05, 6.71, 4.85, 3.74, 3.9, 4.8, 5.24, 5.24, 6.0, 0.0, 5.81, 5.81, 5.81, 5.99, 5.99, 5.72, 6.32, 6.4, 6.4, 6.27, 6.27, 6.48, 7.25, 9.22, 11.2, 12.29, 10.94, 8.53, 7.78, 8.37, 8.22, 7.13, 5.03, 0.0, -5.81, -4.82, -4.24, -3.43, -3.73, -3.35, -4.38, -5.94, -4.43, -1.84, -0.0, -0.0, -3.0, -5.37, -6.8, -8.05, -7.81, -4.29, 0.0, 3.63, 4.46, 0.0, -3.45, -4.47, -4.83, -2.99, -1.55, -1.84, 0.0, 0.0, 0.0, 2.83, 5.37, 7.89, 7.4, 6.91, 6.32, 4.96, -8.94, -8.0, -0.0, 6.32, 5.82, 5.49, 5.37, 7.6, 6.4, 7.06, 7.21, 7.74, 8.91, 10.5, 10.58, 9.2, 8.93, 8.93, 6.96, 6.82, 8.23, 7.27, 6.28, 7.95, 9.96, 9.55, 8.33, 8.45, 6.65, 4.66, 3.95, 5.26, 6.45, 6.61, 4.74, -0.0, 5.81, 5.81, 5.81, 5.81, 5.99, 6.6, 6.32, 6.4, 6.4, 6.73, 7.03, 7.25, 7.48, 8.61, 10.65, 12.29, 12.86, 12.27, 10.73, 9.62, 8.86, 9.19, 9.17, 6.7, -5.69, -5.81, -4.87, -4.11, -5.2, -5.86, -4.66, -5.2, -6.4, -4.43, -0.0, -0.0, -0.0, -7.6, -7.6, -6.8, -4.56, -1.63, 0.0, 3.21, 3.17, 0.0, -0.82, -3.52, -3.25, -3.25, -2.28, 0.0, 0.0, 0.0, 0.0, 0.0, 0.0, 4.74, 6.79, 6.26, -4.0, -4.2, -4.0, -3.8, 0.0, 0.0, 4.43, -0.0, -0.0, -0.0, -0.0, -2.12, -0.0, 6.26, 7.45, 9.45, 8.8, 6.79, 7.41, 7.44, 6.44, 6.73, 9.4, 8.85, 4.4, 7.81, 9.48, 8.93, 7.31, 6.66, 6.67, 6.07, 5.09, 5.09, 6.07, 6.71, 5.21, 6.0, 5.81, 5.81, 6.4, 6.4, 6.4, 6.6, 6.6, 6.6, 6.95, 6.95, 7.25, 7.25, 8.01, 8.26, 10.15, 11.7, 12.22, 12.3, 12.37, 12.0, 10.81, 10.99, 10.9, 10.23, 4.48, -9.97, -7.15, -4.43, -4.77, -5.02, -4.73, -3.95, -5.94, -7.15, 7.15, 7.6, 8.49, 7.6, -8.49, -5.06, -1.73, 0.0, 1.23, 1.07, 0.0, 7.6, 7.6, 0.0, -1.1, -3.45, -2.6, 0.0, 0.0, -7.6, 7.15, 8.05, 2.12, 1.08, 3.16, -7.15, -7.2, -3.6, -1.84, 0.0, 0.0, 0.0, -4.74, -0.0, -0.0, -0.0, -0.0, -1.96, -2.49, -3.22, 6.26, 7.6, 7.81, 6.44, 5.93, 6.28, 5.93, 5.77, 8.05, 9.4, 8.54, 5.7, 8.38, 9.97, 7.6, 7.6, 7.56, 7.28, 5.6, 4.93, 6.02, 6.71, 5.81, 5.81, 5.81, 6.4, 6.4, 6.4, 6.4, 6.4, 6.4, 6.6, 7.16, 6.95, 7.46, 8.01, 8.01, 8.26, 10.15, 11.29, 11.76, 11.82, 12.22, 12.26, 12.16, 12.01, 11.75, 11.28, 9.76, 2.93, -9.33, -7.15, -5.73, -4.73, -3.7, -3.07, -2.97, -6.4, -0.0, 6.71, 7.6, -7.6, -8.05, -5.37, -1.63, 0.0, 0.0, -2.12, -6.0, -0.0, -0.0, -0.0, 6.71, 0.0, 0.0, 0.0, 7.15, -0.0, -0.0, -0.0, 6.71, 0.0, 0.0, -8.49, -8.05, 8.05, 0.0, 0.0, 0.0, 0.0, 0.0, 8.05, 5.37, -0.0, -2.26, -1.84, -1.52, -5.06, -7.6, -8.05, -8.94, 8.94, 8.94, 0.0, 8.0, 6.44, 6.16, 7.12, 7.53, 5.73, 7.63, 8.49, 6.79, 6.26, 7.55, 5.05, 4.46, 6.36, 7.21, 5.75, 4.98, 4.98, 6.4, 6.4, 6.4, 5.93, 6.12, 6.12, 6.12, 6.87, 7.16, 7.16, 7.69, 7.69, 8.01, 8.76, 9.39, 10.6, 11.06, 11.11, 11.8, 12.16, 12.39, 12.01, 11.42, 10.73, 11.02, 10.55, 10.4, 10.0, 9.83, -6.01, -5.06, -3.63, -3.16, -5.06, -1.84, -3.0, -3.0, -5.06, -6.71, -6.71, 0.0, -2.4, -6.0, -5.58, -5.69, -5.69, -0.0, -0.0, -0.0, 3.2, -0.0, -0.0, -0.0, 7.15, 7.15, 7.6, 8.05, 6.01, 8.94, 9.39, -0.0, -0.0, 3.4, 3.2, 5.06, 6.26, 7.15, 7.15, -0.0, -2.12, -3.97, -6.36, -7.15, -5.37, -7.63, -8.24, -8.4, -9.2, -9.75, -9.39, -8.94, 6.01, 7.2, 6.21, 6.6, 5.94, 5.36, 4.47, 5.36, 6.7, 9.13, 6.6, 4.81, 6.07, 7.42, 5.82, 4.11, 4.11, 6.4, 6.4, 6.4, 6.2, 5.93, 6.66, 6.66, 6.66, 6.87, 7.69, 7.69, 7.69, 8.01, 8.76, 9.12, 10.07, 10.75, 11.44, 11.1, 11.79, 11.94, 11.82, 11.56, 11.04, 11.87, 12.89, 12.72, 12.71, 12.39, 11.62, -0.0, -3.2, -2.53, -1.61, -1.84, -3.22, -3.79, -4.43, -6.26, 6.26, 6.26, -7.15, -5.06, -5.37, -7.6, -8.49, -8.49, -0.0, -0.0, -0.0, -0.0, -0.0, -0.0, 7.6, 8.05, 8.05, 8.49, 8.94, 6.32, 6.32, 6.32, 6.01, 3.6, -0.0, -0.0, -0.0, 6.26, 5.06, 7.6, -5.06, -7.6, -5.37, -6.01, -6.32, -9.11, -8.0, -6.64, -6.95, -8.18, -7.6, -6.79, -4.74, 6.71, 4.74, 5.06, 5.06, 5.77, 5.73, 6.0, 6.18, 8.79, 7.4, 4.74, 5.69, 6.79, 4.74, 3.22, 3.22, 6.4, 6.4, 6.2, 6.2, 6.45, 6.45, 6.66, 6.66, 6.87, 7.69, 7.69, 7.69, 8.18, 8.51, 8.01, 9.81, 9.76, 10.75, 11.09, 11.17, 12.12, 13.19, 11.63, 11.53, 11.38, 13.81, 10.4, 12.5, 11.64, 8.22, -0.0, -2.99, -3.22, -2.23, -2.51, -2.84, -3.83, -4.24, -6.71, -8.05, -7.15, 7.6, -7.6, -7.6, -8.49, -8.49, -8.49, -6.01, -0.0, -0.0, -0.0, -0.0, -0.0, 7.6, 8.05, 8.49, 8.49, 8.94, 8.94, 8.94, 8.94, 6.01, -0.0, -0.0, -2.12, -1.98, 6.71, 5.95, 6.32, 6.32, 0.0, 0.0, 5.4, 5.4, 11.18, -7.27, -0.0, -0.0, -8.0, -7.2, -6.36, -4.43, 6.26, 3.72, 4.46, 4.71, 6.42, 7.48, 7.9, 6.4, 5.69, 7.37, 5.69, 4.87, 5.59, 4.95, 3.9, 3.9, 6.4, 6.4, 6.2, 6.2, 6.45, 6.45, 6.66, 7.17, 7.39, 7.39, 7.69, 7.69, 8.18, 8.51, 8.51, 8.58, 9.66, 9.37, 8.42, 10.03, 13.97, 13.85, 12.27, 11.58, 9.87, 11.03, 10.75, 9.17, 9.48, 6.71, 9.83, -2.06, -2.32, -2.07, -2.23, -2.79, -3.49, -4.8, -5.51, -6.26, -6.71, -6.0, -4.43, -4.84, -5.51, -8.49, -8.49, -6.01, -6.01, -0.0, -0.0, -0.0, -0.0, -0.0, -0.0, 8.05, 8.94, 8.05, 8.49, 9.39, 8.49, -0.0, -0.0, -3.4, -1.98, -2.8, 6.71, 7.15, 7.6, 8.38, 9.74, 11.57, 13.41, 13.81, 13.09, 10.8, 8.94, 5.7, -7.81, -6.94, -6.71, -5.06, -0.0, -0.0, 2.8, 3.45, 4.43, 4.54, 7.9, 5.72, 4.22, 5.82, 6.18, 4.0, 3.7, 4.96, 4.26, 4.26, 6.2, 6.4, 6.2, 6.73, 6.45, 6.45, 7.17, 7.17, 7.39, 7.39, 7.69, 7.69, 8.18, 8.18, 9.23, 9.23, 10.01, 8.74, 7.51, 8.85, 12.01, 12.87, 12.42, 11.11, 10.75, 10.43, 10.12, 8.78, 6.21, 2.6, 7.6, -1.98, -2.2, -1.88, -2.53, -2.84, -3.83, -4.4, -4.46, -5.21, -6.36, -6.36, -5.94, -5.51, -5.09, -8.05, -8.05, -7.6, -6.01, -5.69, -0.0, -0.0, -0.0, -0.0, 8.05, 7.6, 8.49, 8.49, 9.39, 8.49, 8.49, 8.05, -5.69, -6.8, -5.6, -4.43, -6.26, 6.71, 6.32, 6.18, 7.82, 10.6, 12.93, 12.93, 11.62, 9.08, 5.77, 0.0, -9.39, -7.6, -7.15, -6.71, -2.8, -2.98, -4.11, -5.36, -5.36, 4.11, 5.59, 5.82, 6.01, 6.48, 6.17, 3.09, 2.82, 3.8, 3.09, 3.09, 6.2, 6.2, 6.73, 6.73, 6.45, 6.45, 6.94, 7.17, 7.39, 7.39, 7.69, 7.69, 8.18, 8.18, 8.64, 9.23, 10.01, 9.42, 8.81, 9.3, 10.95, 11.79, 11.82, 11.06, 11.06, 11.88, 11.8, 9.8, 5.2, 0.0, 4.47, -0.0, -1.27, -1.8, -2.68, -3.93, -3.93, -4.8, -4.46, -4.84, -4.84, -4.84, -5.09, -5.09, -4.66, -5.36, -8.49, -7.2, -5.69, -5.37, -5.06, -0.0, -0.0, -0.0, 7.6, 8.05, 8.05, 8.49, 8.94, 8.49, 7.6, -5.37, -5.37, -6.8, -5.06, -4.74, -4.43, 6.71, -0.0, 3.6, 6.32, 9.2, 6.95, -0.0, 4.22, 5.75, 6.21, 3.82, -9.3, -8.94, -6.94, -6.71, -6.26, -6.07, -5.94, -6.26, -5.2, 1.41, 5.38, 8.67, 8.58, 7.27, 6.77, 4.56, 1.3, 2.11, 3.2, 3.2, 6.2, 6.2, 6.2, 6.73, 6.45, 6.45, 6.94, 7.17, 7.39, 7.39, 7.62, 8.43, 8.18, 8.18, 8.64, 9.33, 9.66, 9.46, 9.78, 10.09, 11.76, 12.22, 11.17, 10.51, 10.75, 11.14, 11.95, 10.82, 7.9, 0.0, 0.0, 5.81, -2.2, -2.73, -2.73, -3.79, -4.11, -4.84, -4.84, -4.84, -4.46, -4.46, -4.46, -4.09, -3.72, -4.09, -7.2, -6.8, -5.06, -5.06, -5.37, -5.37, -0.0, -0.0, 7.6, 7.6, 7.15, -8.05, 8.94, 0.0, 7.6, 8.05, -0.0, -5.37, -5.06, -4.74, -0.0, 6.26, 6.71, 7.15, 8.05, 8.49, -1.52, -0.0, 0.0, 2.46, 3.92, 0.0, -7.27, -8.4, -6.71, -6.94, -6.71, -6.94, -6.94, -5.58, -1.32, 0.89, 4.96, 7.59, 9.21, 7.52, 7.59, 5.36, 4.02, 2.95, 3.11, 3.11, 6.2, 6.2, 6.2, 6.73, 6.73, 6.45, 6.94, 7.17, 7.88, 7.88, 8.12, 8.12, 8.43, 8.18, 8.9, 9.33, 9.73, 9.76, 9.78, 10.43, 11.73, 12.07, 12.01, 10.81, 10.18, 10.43, 10.81, 10.54, 8.53, 5.46, 8.4, 8.05, -0.0, -2.8, -3.47, -3.47, -4.74, -5.58, -5.21, -5.21, -4.84, -3.79, -3.48, -3.93, -3.58, -3.83, -7.21, -5.37, -5.37, -5.69, -6.01, -5.69, -0.0, -0.0, -0.0, 7.15, -0.0, 6.71, 8.05, 0.0, 0.0, 7.15, 7.6, 7.15, -4.43, -0.0, 7.15, 8.49, 5.37, 5.37, 5.06, -5.81, -4.74, 5.81, 5.81, 0.0, 0.0, 9.39, -0.0, -4.22, -4.74, -6.26, -6.58, -5.36, -5.37, -3.2, 0.0, 0.84, 3.27, 3.72, 6.24, 3.55, 4.11, 4.47, 3.82, 3.07, 3.72, 3.72, 6.2, 6.2, 6.2, 6.73, 6.51, 6.51, 6.94, 7.17, 7.64, 7.88, 8.12, 8.12, 8.12, 8.43, 8.9, 9.33, 9.44, 9.76, 9.46, 10.43, 11.4, 12.0, 12.27, 12.01, 10.55, 10.18, 10.12, 9.8, 8.32, 7.15, 7.27, 8.8, 8.94, 7.6, -5.06, -5.06, -5.37, -5.37, -5.95, -5.21, -4.84, -4.46, -3.93, -3.48, -3.84, -4.4, -5.4, -5.75, -5.72, -5.06, -4.02, -3.8, -5.37, -0.0, -0.0, -0.0, -0.0, -0.0, 7.15, 0.0, 0.0, 0.0, -4.11, -5.36, -2.4, -0.0, -0.0, 8.49, 8.05, 6.4, 7.2, 3.4, 0.0, 0.0, -5.81, -5.81, 5.81, 6.71, -0.0, -2.26, -2.12, -4.43, -6.07, -5.36, -5.37, -3.2, -1.01, 0.0, 0.0, -2.8, -4.43, 0.0, 4.84, 4.98, 4.4, 4.46, 3.79, 3.79, 6.2, 6.2, 6.0, 6.51, 6.51, 6.51, 6.73, 7.17, 7.88, 7.88, 7.88, 8.12, 8.12, 8.35, 9.16, 9.33, 9.44, 9.44, 9.76, 10.75, 11.39, 12.02, 12.24, 11.96, 11.44, 10.9, 10.58, 9.06, 7.82, 6.97, 7.9, 8.58, 6.95, 8.94, 8.05, -5.69, -5.69, -5.69, -5.37, -6.79, -5.94, -4.84, -4.46, -4.29, -4.6, -4.6, -4.98, -5.36, -5.06, -5.59, -4.47, -4.43, -5.37, -3.4, -3.4, -3.4, -5.06, -0.0, 6.71, 7.6, 0.0, 0.0, 5.36, -2.53, -0.0, -0.0, -0.0, 8.49, -7.15, 0.0, 5.37, 6.64, 4.22, 3.2, 0.0, -8.49, -8.49, 6.71, -0.0, -0.0, -3.2, -2.8, -5.81, -5.21, -5.36, -4.29, -3.4, -1.84, -3.97, -4.89, -4.43, 0.0, 5.24, 5.09, 5.72, 5.15, 3.79, 3.79, 6.0, 6.0, 6.0, 6.51, 6.51, 6.73, 6.73, 7.17, 7.88, 7.88, 7.88, 8.12, 8.12, 8.35, 8.84, 9.33, 9.06, 9.44, 9.76, 10.42, 11.06, 11.39, 11.68, 11.88, 11.96, 11.52, 10.92, 9.02, 7.82, 7.14, 7.27, 7.27, 7.56, 7.51, 6.32, 0.0, 8.49, 8.49, -6.01, -5.37, -7.15, -6.26, -5.81, -4.8, -4.65, -4.65, -4.11, -4.43, -4.74, -4.19, -4.74, -4.01, -3.72, -3.07, -3.76, -3.72, -5.37, -0.0, -0.0, -0.0, 8.49, 0.0, 8.05, -0.0, 8.94, 8.49, 8.94, 7.6, 0.0, 0.0, 3.4, 4.83, 6.01, 5.69, 5.81, -0.0, -4.74, 6.26, 7.15, 7.15, -7.15, -4.11, -0.0, -5.81, -5.01, -4.43, -4.56, -3.4, -5.06, -4.19, -4.01, -0.89, 3.47, 4.83, 5.3, 5.06, 4.74, 4.74, 6.0, 6.0, 6.51, 6.51, 6.51, 6.73, 6.73, 7.46, 7.39, 8.33, 8.33, 8.12, 8.12, 8.35, 9.16, 9.16, 9.38, 9.38, 10.06, 10.72, 10.72, 11.07, 11.68, 11.93, 11.64, 11.8, 11.2, 10.12, 7.96, 7.24, 7.36, 6.77, 7.13, 6.32, 6.32, 6.32, 6.32, 8.49, 8.49, 8.05, -7.6, -6.71, -5.81, -4.11, -4.43, -4.43, -4.74, -4.74, -4.19, -3.91, -3.91, -3.72, -3.43, -3.15, -3.15, -4.43, -3.4, -0.0, -0.0, -0.0, 7.15, 8.05, 7.6, -0.0, 8.94, 9.83, 8.49, 8.05, 0.0, 0.0, 4.46, 5.69, 6.01, 5.36, 0.0, -4.47, -5.2, -6.71, 6.71, 6.71, 6.71, -5.81, -0.0, 4.47, 4.92, -3.79, -4.43, -5.95, -5.06, -4.29, -5.06, -2.49, 1.72, 3.47, 4.46, 4.94, 5.0, 5.0, 6.0, 6.0, 6.51, 6.51, 6.51, 6.73, 6.73, 7.46, 7.39, 7.88, 8.33, 8.58, 8.12, 8.84, 8.84, 9.16, 9.66, 9.38, 10.06, 10.35, 10.72, 11.07, 11.36, 11.33, 11.64, 11.39, 11.15, 10.12, 8.23, 7.24, 6.71, 6.77, 7.06, 6.32, 6.98, 6.32, 6.32, 6.32, 8.94, 8.49, 7.6, -6.71, -5.81, 6.71, -0.0, -1.98, -3.49, -3.91, -3.91, -4.19, -3.91, -3.43, -3.15, -3.48, -3.48, -3.16, -4.74, -0.0, -0.0, -0.0, -6.71, -7.6, 7.15, 8.05, 9.39, 8.94, 8.94, 8.05, 7.6, 0.0, 2.54, 6.9, 7.37, 6.87, 1.84, -8.48, -6.26, -5.36, 6.71, 5.81, 5.81, 5.81, -4.43, -0.0, -0.0, -4.47, -4.8, -5.21, -4.74, -4.74, -5.58, -4.02, -0.89, 1.45, 2.99, 4.37, 4.37, 4.37, 6.0, 6.0, 6.51, 6.51, 6.51, 6.73, 6.73, 7.46, 7.39, 7.88, 8.33, 8.33, 8.58, 8.84, 8.84, 9.16, 9.95, 9.66, 10.4, 10.06, 10.72, 10.75, 10.75, 11.36, 11.33, 11.04, 10.81, 9.67, 8.38, 7.24, 6.71, 6.77, 6.95, 6.64, 6.64, 7.33, 7.51, 7.81, 6.32, 6.01, 8.05, 7.15, 5.81, -0.0, -3.48, -5.37, -2.4, -2.41, -2.41, -2.51, -2.79, -2.79, -3.15, -3.48, -3.48, -3.48, -3.48, -2.79, -3.47, -4.43, -6.51, -7.6, -7.6, -6.01, 8.49, 8.05, -8.05, 8.49, 6.26, 0.0, 1.95, 5.37, 7.53, 8.3, 7.81, 2.49, -9.83, -7.15, -5.09, 0.0, 2.2, 0.0, -6.71, -5.2, -2.84, -2.23, -3.82, -4.47, -4.24, -4.47, -4.92, -3.22, -1.7, 0.0, 1.44, 2.9, 3.7, 3.7, 6.0, 6.0, 6.51, 6.51, 6.51, 6.73, 6.73, 7.46, 7.69, 7.88, 7.88, 8.33, 8.58, 8.84, 8.84, 8.84, 9.95, 9.66, 9.66, 10.4, 10.4, 10.75, 11.07, 11.07, 11.07, 11.06, 10.46, 9.8, 8.1, 7.95, 7.65, 7.36, 7.59, 6.95, 7.13, 7.21, 7.33, 7.51, 6.64, 6.32, 5.69, 7.15, 6.26, -0.0, -2.4, -7.6, -6.4, -2.48, -2.15, -2.41, -2.51, -2.79, -3.16, -3.48, -3.78, -4.0, -4.0, -4.37, -4.12, -5.81, -6.71, -7.37, -7.6, -6.01, 8.49, 7.6, 6.71, 0.0, 0.0, 4.43, 2.16, 2.16, 5.75, 8.44, 9.92, 9.48, 0.0, -8.67, -6.71, -2.6, 0.0, 2.2, -5.36, -5.36, -5.09, -4.09, -2.84, -3.35, -3.39, -2.53, -0.0, -2.0, -2.04, -1.45, 0.0, 1.47, 2.17, 2.17, 6.0, 6.0, 6.0, 6.51, 6.51, 6.73, 6.73, 7.46, 7.69, 7.88, 7.88, 8.33, 8.33, 8.58, 8.84, 8.84, 9.61, 9.95, 9.95, 10.06, 10.4, 10.75, 11.06, 11.39, 11.07, 10.76, 10.78, 9.06, 7.41, 6.86, 8.53, 8.53, 7.9, 7.27, 6.95, 6.95, 7.56, 7.68, 7.51, 6.32, 6.01, 5.37, 6.71, -4.11, -5.6, -7.15, -6.71, -5.21, -4.43, -4.43, -4.11, -3.35, -3.48, -2.84, -3.43, -4.0, -4.55, -4.8, -4.9, -5.64, -6.71, -7.37, -7.6, -5.69, 8.49, 8.05, 7.15, 5.37, 3.2, 3.72, 2.6, 2.26, 4.0, 8.67, 10.68, 9.7, 0.0, -6.79, -5.81, -5.6, 0.0, 0.0, 0.0, -4.43, -7.6, -7.21, -5.21, -3.35, -4.09, -2.23, -0.0, 3.58, -0.73, -2.2, 0.0, 0.0, 0.71, 0.71, 6.27, 6.27, 6.0, 6.51, 6.51, 6.73, 6.73, 7.46, 7.69, 7.88, 7.88, 8.33, 8.33, 8.33, 8.84, 8.84, 9.61, 9.61, 9.95, 10.06, 10.35, 11.06, 11.06, 10.75, 11.07, 10.76, 10.12, 8.66, 7.24, 7.41, 7.72, 7.72, 7.59, 7.06, 7.27, 6.11, 6.95, 7.56, 7.33, 6.64, 6.32, 5.69, 0.0, -6.71, -6.26, -7.15, -7.63, -6.32, -5.06, -5.06, -4.74, -4.43, -4.19, -3.84, -3.72, -3.72, -3.88, -4.6, -5.24, -4.88, -4.92, -6.8, -8.94, 7.6, -0.0, -0.0, -0.0, 5.06, 8.05, 5.69, 0.0, 0.0, 2.54, 6.01, 10.32, 11.03, -8.8, -7.6, -0.0, 7.15, 7.6, 3.25, 3.39, 0.0, 0.0, -8.49, -6.4, -2.53, -3.79, -2.48, -1.41, -0.0, 0.0, -1.41, -2.26, 0.0, 0.0, 0.0, 6.07, 6.07, 6.27, 6.51, 6.51, 6.73, 6.73, 7.46, 7.46, 7.88, 7.88, 8.33, 8.33, 8.33, 8.58, 8.84, 9.28, 9.33, 9.66, 9.95, 10.35, 10.35, 11.06, 10.75, 10.75, 10.76, 10.12, 9.1, 8.18, 8.21, 6.92, 6.59, 7.59, 7.59, 7.59, 7.27, 6.11, 6.64, 6.64, 5.86, 5.36, 4.46, 3.4, 0.0, -6.71, -6.71, -7.21, -6.32, -5.69, -5.69, -5.37, -4.74, -4.89, -4.54, -4.19, -3.72, -3.35, -4.11, -4.34, -4.43, -7.6, -7.6, 8.05, 8.05, -5.06, -5.06, -3.2, -0.0, 7.6, 8.05, -8.05, 0.0, 3.8, 4.68, 8.24, 10.8, -11.18, -0.0, 7.59, 9.54, 10.28, 9.55, 7.27, 6.17, 5.7, 0.0, 6.26, -2.0, -1.55, -2.0, -1.8, -0.87, -0.0, -1.27, -2.12, -1.49, -0.73, -0.73, 6.07, 6.07, 6.27, 6.8, 6.8, 6.51, 6.73, 7.46, 7.46, 7.88, 7.88, 8.33, 8.33, 8.33, 8.58, 9.28, 9.02, 9.33, 9.66, 9.95, 10.35, 10.35, 11.06, 11.41, 10.75, 10.43, 9.76, 9.02, 8.66, 8.21, 7.54, 6.59, 7.59, 7.59, 8.07, 7.27, 6.4, 6.4, 6.64, 5.72, 5.59, 4.83, 4.22, 3.2, 0.0, -6.71, -7.15, -7.21, -6.32, -5.69, -6.08, -5.72, -6.13, -5.37, -4.98, -4.46, -4.09, -4.0, -3.6, -4.15, -4.24, -7.6, -7.6, -8.05, -5.69, -8.05, -5.06, -5.06, -7.6, -7.6, -5.06, 0.0, 6.32, 7.15, 8.58, 11.03, 11.71, 10.01, 11.12, 12.35, 11.18, 10.08, 7.67, 6.01, 4.83, 1.98, 5.81, -0.0, -0.0, -1.19, -1.66, -1.66, -0.99, 3.58, -0.81, -2.18, -1.4, -1.4, 6.07, 6.07, 6.27, 6.8, 6.8, 6.8, 6.73, 7.23, 7.46, 7.64, 7.88, 8.33, 8.33, 8.33, 8.33, 9.02, 9.02, 9.33, 9.66, 9.95, 10.35, 10.35, 11.06, 11.06, 11.06, 10.43, 9.76, 9.31, 8.66, 8.3, 8.07, 7.42, 7.59, 8.02, 7.59, 7.74, 6.95, 6.4, 6.4, 6.01, 4.96, 5.03, 4.56, 3.97, 3.2, 0.0, -7.15, -7.6, -5.37, -6.32, -5.37, -5.72, -5.36, -5.37, -4.98, -4.6, -4.4, -3.72, -3.6, -3.83, -4.0, -4.4, -8.05, -6.4, -8.05, 8.94, 8.05, 8.05, 8.05, 7.6, 0.0, 0.0, 8.4, 9.11, 10.28, 10.18, 10.73, 10.84, 12.39, 12.52, 11.18, 8.49, 6.07, 4.09, 2.73, 1.55, 3.48, 4.02, -0.0, -1.55, -1.19, -1.66, -1.6, -0.0, 0.0, -0.88, -2.17, -2.17, 6.07, 6.07, 6.27, 6.27, 6.8, 6.8, 6.73, 7.23, 7.46, 7.93, 7.64, 7.88, 8.33, 8.33, 8.33, 9.02, 9.02, 9.02, 9.33, 9.95, 9.95, 10.35, 10.7, 10.7, 10.75, 10.75, 9.37, 9.31, 8.66, 8.3, 8.12, 7.78, 7.9, 8.35, 8.02, 7.68, 6.95, 6.95, 6.11, 5.46, 5.72, 4.46, 3.68, 4.71, 3.72, 5.06, 0.0, 7.6, -6.8, -5.37, -5.95, -6.0, -6.0, -5.6, -4.98, -4.6, -4.22, -3.72, -4.0, -3.83, -4.0, -4.66, -8.05, -7.15, -8.05, 8.94, -0.0, -5.69, -8.05, 7.6, 7.15, 7.15, 8.94, 10.28, 10.08, 9.75, 8.4, 8.79, 10.4, 9.67, 9.2, 8.49, 5.36, 4.02, 3.16, 0.0, 0.0, 0.0, 4.47, -0.0, -1.55, -2.0, -2.68, -2.23, -0.0, 0.0, -2.29, -2.99, 6.07, 6.07, 6.07, 6.27, 6.8, 6.8, 7.03, 7.23, 7.46, 7.93, 7.64, 7.64, 8.08, 8.08, 8.33, 9.02, 9.02, 9.02, 9.33, 9.95, 9.95, 10.35, 10.7, 10.7, 11.06, 10.37, 9.37, 9.02, 8.95, 8.3, 8.01, 8.22, 8.31, 8.31, 8.31, 8.02, 6.95, 6.48, 5.63, 6.11, 5.2, 4.94, 3.97, 3.6, 5.06, 5.37, 4.22, 0.0, -7.6, -6.4, -5.95, -5.58, -5.6, -5.6, -5.2, -4.6, -4.22, -3.83, -3.49, -3.49, -3.58, -3.48, -5.69, -7.15, -7.6, 8.94, -6.01, -7.6, -7.6, 7.6, 7.15, 8.05, 8.49, 8.82, 10.68, 9.75, 7.28, 6.64, 8.85, 7.82, 5.21, 3.4, 4.74, 3.48, 4.92, 4.92, 3.79, 0.0, 4.92, 4.92, -2.2, -2.48, -2.68, -3.35, -3.82, -4.47, -3.79, -2.29, 6.07, 6.07, 6.07, 6.27, 6.8, 6.8, 6.8, 7.23, 7.46, 7.93, 7.64, 7.64, 7.64, 8.08, 8.33, 8.75, 9.02, 9.02, 9.33, 9.66, 9.95, 10.35, 10.7, 10.4, 10.75, 10.43, 9.37, 8.29, 8.29, 8.18, 8.3, 8.12, 8.22, 8.6, 8.31, 7.97, 7.27, 6.53, 6.18, 5.63, 5.36, 4.5, 3.77, 3.0, 3.8, 4.83, 4.14, 2.4, 0.0, -7.15, -6.0, -6.36, -5.94, -5.6, -5.2, -4.29, -3.93, -3.49, -3.49, -3.49, -3.16, -2.73, -2.4, -0.0, 8.05, -5.69, -5.37, -7.6, -7.6, 0.0, 0.0, 0.0, 0.0, 7.44, 9.39, 9.83, 8.06, 5.84, 6.11, 7.27, 5.24, 3.48, 4.43, 5.2, 5.36, 5.81, 6.26, 6.26, 5.2, 5.81, 4.92, -3.48, -3.16, -2.98, -3.82, -4.92, -5.09, -3.79, 6.07, 6.07, 6.07, 6.07, 6.8, 6.8, 6.8, 7.23, 7.23, 7.46, 7.64, 7.64, 7.64, 8.08, 8.33, 8.46, 9.02, 9.02, 9.02, 9.33, 9.66, 9.66, 10.7, 10.7, 10.37, 10.04, 9.31, 8.56, 7.54, 7.9, 7.9, 8.01, 8.53, 8.22, 8.27, 7.94, 7.27, 7.27, 6.53, 5.76, 5.63, 5.1, 4.26, 3.55, 2.99, 3.49, 1.4, 0.0, 0.0, -6.71, -6.71, -5.6, -5.94, -5.94, -4.84, -4.8, -4.29, -3.16, -3.48, -3.48, -2.79, -2.68, -3.4, -0.0, -0.0, 8.05, -7.6, 8.49, 7.6, 0.0, 0.0, 0.0, 0.0, 3.8, 7.6, 7.6, 8.05, 5.75, 4.01, 3.48, 3.16, 4.4, 4.82, 7.15, 7.6, 8.05, 7.6, 7.15, 7.15, 6.51, 6.4, 6.71, -4.47, -3.2, -4.02, -4.24, -3.79, -3.79, 6.36, 6.36, 6.07, 6.07, 6.57, 6.8, 6.8, 7.23, 7.23, 7.23, 7.69, 7.64, 7.64, 8.08, 8.08, 8.04, 8.46, 9.02, 8.75, 9.02, 9.66, 9.66, 10.4, 10.4, 10.01, 9.66, 9.02, 8.29, 8.01, 7.9, 7.9, 8.01, 8.16, 8.9, 8.57, 7.9, 7.59, 6.88, 6.83, 6.04, 5.76, 5.36, 4.83, 4.83, 5.2, 4.37, 0.0, 0.0, 0.0, 0.0, -5.81, -5.81, -5.81, -5.51, -5.09, -4.46, -3.93, -3.93, -3.48, -3.48, -3.07, -3.07, -2.2, -5.69, -0.0, 8.05, 8.49, 8.05, 7.15, 0.0, 0.0, 0.0, 0.0, 2.4, 2.69, 5.06, 5.81, 7.07, 1.95, 1.73, 4.74, 7.15, 8.94, 10.28, 9.39, 8.49, 6.71, 6.26, 6.26, 6.61, 6.94, 6.8, 0.0, -3.16, -3.16, 0.0, 0.0, 0.0, 6.36, 6.36, 6.36, 6.07, 6.57, 6.8, 6.8, 6.99, 7.23, 7.23, 7.69, 7.4, 7.64, 8.08, 8.08, 8.04, 8.46, 8.75, 8.75, 9.02, 9.33, 9.66, 10.01, 10.01, 9.71, 9.37, 8.66, 7.93, 8.01, 7.28, 7.63, 7.36, 8.16, 8.53, 8.22, 8.24, 7.9, 7.59, 6.88, 6.53, 5.76, 5.49, 5.1, 4.83, 5.53, 5.31, 3.4, 0.0, 0.0, 0.0, -3.79, -5.36, -5.36, -5.36, -5.09, -4.09, -3.48, -3.48, -3.79, -3.35, -3.35, -3.07, -2.95, -5.37, 7.6, 8.05, 8.49, 8.49, 7.15, 0.0, 0.0, 0.0, 0.0, 2.06, 4.14, 4.14, 6.44, 8.67, 9.6, 11.62, 12.14, 12.98, 13.59, 12.45, 10.73, 8.49, 7.15, 6.71, 6.21, 6.2, 5.81, 4.43, 2.6, 0.0, 0.0, 0.0, 0.0, 0.0, 6.14, 6.14, 6.36, 6.36, 6.57, 6.57, 6.8, 6.99, 6.99, 7.23, 7.69, 7.4, 7.64, 8.08, 8.08, 8.04, 8.46, 8.75, 8.75, 8.75, 9.33, 9.66, 10.01, 10.01, 10.01, 9.3, 8.31, 8.38, 7.67, 7.73, 7.73, 7.8, 7.8, 8.53, 8.53, 8.22, 7.9, 7.22, 7.18, 6.42, 6.04, 5.76, 5.36, 5.1, 4.83, 6.01, 5.31, 1.95, 0.0, 0.0, 0.0, -4.43, -5.81, -5.36, -4.8, -3.79, -3.79, -3.79, -3.22, -3.35, -3.72, -2.98, -2.76, -2.73, 8.05, 8.05, 8.49, 7.6, 7.6, 7.15, -8.49, 0.0, 0.0, 2.06, 5.1, 6.79, 8.3, 9.39, 10.28, 11.3, 12.27, 13.51, 14.84, 13.19, 11.18, 9.83, 8.94, 6.71, 6.65, 5.75, 8.94, 0.0, 0.0, 0.0, 0.0, 0.0, 0.0, 0.0, 6.14, 6.14, 6.14, 6.36, 6.57, 6.57, 6.8, 7.29, 6.99, 7.23, 7.69, 7.4, 7.64, 7.64, 8.08, 8.04, 8.04, 8.46, 8.75, 8.75, 9.06, 9.38, 9.66, 9.66, 9.38, 9.3, 9.02, 8.38, 8.1, 7.73, 7.73, 7.73, 7.8, 8.19, 8.19, 8.22, 7.9, 7.22, 7.18, 6.88, 6.14, 5.76, 5.49, 5.1, 5.1, 5.53, 5.44, 4.37, 2.54, 0.0, 0.0, 0.0, -6.71, -6.26, -5.36, -4.8, -3.79, -3.22, -4.11, -4.11, -4.11, -3.63, -2.99, -1.7, -0.0, 8.49, 8.49, 7.6, -0.0, -5.37, -7.21, -7.6, -5.69, 0.0, 0.0, 8.94, 8.94, 9.39, 9.76, 8.72, 8.82, 12.79, 14.75, 13.36, 12.07, 10.73, 9.83, 8.94, 7.6, 8.94, 5.81, 0.0, 0.0, 0.0, 1.19, 1.19, 1.19, 1.19, 6.14, 6.14, 6.14, 6.36, 6.57, 6.57, 6.57, 7.29, 6.99, 7.23, 7.69, 7.4, 7.4, 7.64, 8.08, 7.8, 7.8, 8.2, 8.49, 8.49, 9.06, 9.38, 9.38, 9.66, 9.66, 8.96, 8.58, 8.31, 8.38, 7.67, 7.73, 7.73, 7.73, 8.19, 8.19, 7.88, 7.85, 7.9, 7.22, 6.88, 6.14, 5.38, 5.49, 5.49, 5.1, 5.1, 4.94, 4.71, 5.1, 3.6, 2.4, 0.0, 0.0, 6.71, 5.81, -4.11, -2.6, -4.11, -4.43, -4.43, -4.43, -4.43, -2.99, -1.41, -0.0, 8.49, 8.05, 8.05, 8.05, -6.8, -6.7, -8.05, -8.05, -8.49, -8.94, -8.94, 8.94, 9.39, 8.4, 6.64, 8.0, 10.99, 14.31, 13.7, 12.46, 10.58, 8.94, 7.6, 5.6, -3.72, -3.2, -4.02, 0.0, 0.0, 0.0, 0.0, 0.0, 0.0, 6.14, 6.14, 6.14, 6.14, 6.57, 6.57, 6.57, 7.29, 6.99, 6.99, 7.69, 7.4, 7.4, 7.64, 7.8, 7.8, 7.8, 7.8, 8.49, 8.49, 8.75, 9.38, 9.66, 9.33, 9.23, 8.96, 8.58, 8.31, 8.38, 7.93, 7.67, 7.73, 7.73, 7.85, 8.19, 7.88, 7.85, 7.55, 7.52, 7.22, 6.88, 6.14, 5.76, 5.49, 5.89, 5.1, 5.53, 5.44, 4.71, 4.14, 3.6, 3.4, 0.0, 7.15, 6.26, 5.81, -0.0, -2.6, -4.43, -5.01, -4.89, -4.43, -4.43, -2.6, -0.0, -0.0, 8.05, 8.05, 8.05, 8.05, -0.0, -7.6, -8.49, -8.94, -8.94, -8.94, 8.94, 6.32, 5.36, 6.32, 7.81, 9.75, 11.6, 11.9, 11.16, 8.93, -0.0, -0.0, -4.09, -3.48, -3.35, -4.02, -2.84, -1.41, 0.0, 0.0, 0.0, 0.0, 6.14, 6.14, 6.14, 6.14, 6.35, 6.57, 6.57, 7.29, 6.99, 6.99, 7.23, 7.4, 7.4, 7.64, 7.8, 7.8, 7.8, 7.8, 8.49, 8.49, 8.49, 9.38, 8.96, 8.64, 8.96, 8.51, 8.25, 7.85, 7.85, 7.93, 7.67, 8.01, 7.73, 7.85, 8.19, 7.88, 7.51, 7.55, 7.15, 7.22, 6.79, 6.88, 6.14, 5.76, 5.49, 5.36, 5.1, 4.94, 5.44, 4.46, 4.83, 4.22, 3.4, 5.06, 6.71, 6.26, 5.81, -0.0, -4.43, -4.43, -5.75, -5.24, -4.89, -3.49, -1.3, -3.2, -0.0, 8.05, 8.05, 8.05, 8.94, -6.32, -8.06, -8.06, -8.49, -7.6, -6.01, -0.0, 2.69, 6.01, 7.67, 8.0, 7.47, 8.82, 10.35, -0.0, -3.49, -3.79, -0.0, -0.0, -2.84, -3.6, -4.02, -1.8, -1.41, -1.19, -1.19, -1.19, 6.14, 5.92, 6.14, 6.14, 6.35, 6.57, 6.57, 6.57, 6.99, 6.99, 7.23, 7.4, 7.64, 7.64, 7.55, 7.55, 7.55, 7.55, 7.95, 8.49, 8.49, 9.38, 8.96, 8.64, 8.96, 8.51, 8.25, 8.1, 7.85, 7.93, 7.44, 7.54, 8.01, 7.73, 8.19, 7.88, 7.22, 7.55, 7.15, 6.87, 7.22, 6.51, 6.88, 6.14, 5.76, 4.96, 5.36, 4.94, 4.68, 4.46, 5.03, 4.56, 5.37, 7.15, 7.15, 6.71, 5.81, 6.26, -4.43, -5.21, -5.36, -5.75, -4.89, -4.11, -2.4, -3.0, -0.0, -0.0, 7.6, 7.6, 8.05, 8.49, -6.32, -8.0, -7.6, -7.6, -7.2, -3.6, -0.0, 3.8, 7.07, 6.79, 6.01, 7.07, 10.96, -5.36, -2.95, -3.79, 0.0, 3.16, 4.02, -2.84, -3.58, -2.84, -2.0, -1.41, -1.41, -1.41, 5.92, 5.92, 5.92, 6.14, 6.63, 6.35, 6.57, 6.57, 6.99, 6.99, 7.23, 7.4, 7.64, 7.64, 7.13, 7.31, 7.31, 7.55, 7.8, 8.49, 8.49, 8.78, 8.96, 8.64, 8.64, 8.51, 8.25, 8.1, 7.85, 7.93, 7.44, 7.54, 8.01, 7.73, 8.49, 8.19, 7.51, 7.22, 6.87, 6.87, 6.87, 6.51, 6.51, 6.58, 5.86, 5.49, 4.96, 5.1, 4.94, 4.68, 5.03, 5.69, 5.37, 6.8, 6.4, 7.15, 6.26, 6.26, -0.0, -5.6, -6.0, -5.75, -5.75, -5.01, -4.11, -1.55, -0.0, -0.0, -4.74, -0.0, 7.15, 7.15, -0.0, -0.0, -8.4, -8.0, -7.6, -7.2, -3.6, -0.0, 6.01, 6.7, 6.7, 7.94, 11.2, -3.82, -1.14, -0.0, 2.2, 1.7, 1.55, 4.92, -4.47, -2.84, -2.0, -1.55, -1.55, -1.55, 5.92, 5.92, 5.92, 5.92, 6.63, 6.35, 6.35, 6.57, 6.76, 6.99, 7.23, 7.4, 7.64, 7.4, 7.16, 7.16, 7.4, 7.83, 8.08, 8.38, 8.78, 8.78, 8.96, 8.64, 8.64, 8.25, 8.25, 7.85, 7.85, 7.93, 7.44, 7.54, 7.54, 7.73, 8.09, 7.8, 7.51, 7.51, 6.81, 6.87, 6.87, 6.58, 6.92, 6.23, 6.58, 5.86, 5.49, 5.21, 5.1, 4.68, 5.15, 5.69, 6.44, 6.32, 6.8, 6.4, 4.74, 6.71, 6.71, -4.74, -6.0, -6.0, -5.75, -5.75, -4.11, -1.55, -0.0, -0.0, -0.0, -0.0, -5.06, -7.15, -0.0, -0.0, -0.0, 8.49, -6.01, -7.6, -7.6, -6.01, -0.0, 7.6, 7.63, 10.73, 11.2, -4.15, -0.0, 1.13, 3.2, 0.87, 0.0, 0.0, 4.92, -3.16, -2.0, -1.55, -1.55, -1.55, 5.92, 5.92, 5.92, 5.92, 6.63, 6.35, 6.35, 6.57, 6.76, 6.99, 6.94, 7.4, 7.4, 7.4, 7.16, 7.44, 7.69, 7.69, 8.11, 8.38, 8.38, 9.09, 8.96, 8.64, 8.18, 8.25, 8.25, 7.85, 7.85, 7.93, 7.44, 7.54, 7.54, 8.37, 8.09, 7.8, 7.8, 7.09, 6.81, 6.81, 6.87, 6.58, 6.58, 6.62, 6.62, 6.28, 5.59, 5.49, 5.59, 5.53, 6.01, 5.69, 6.44, 6.7, 6.32, 5.37, 5.06, 0.0, 6.71, 6.71, -6.0, -5.58, -6.23, -6.23, -5.6, -3.79, -0.0, -0.0, -0.0, -0.0, -5.06, -7.15, -7.15, 7.15, -0.0, -0.0, 8.05, -8.49, -8.49, -8.49, 8.49, 8.49, 7.45, 10.28, 11.62, -6.44, -2.4, -0.0, -0.0, -1.6, -2.84, -3.16, -3.16, -3.16, -1.55, -1.55, -1.55, -1.55, 5.92, 5.92, 5.92, 5.92, 6.4, 6.35, 6.35, 7.04, 6.76, 6.99, 6.72, 6.72, 6.72, 7.44, 7.19, 7.44, 7.69, 7.69, 7.69, 8.38, 8.38, 8.78, 9.09, 8.69, 7.93, 8.25, 7.53, 7.85, 7.85, 7.93, 7.19, 7.54, 7.54, 8.37, 8.09, 8.09, 7.8, 7.09, 7.09, 6.81, 6.87, 6.87, 6.58, 6.62, 6.62, 6.31, 6.28, 5.94, 6.32, 6.01, 6.01, 6.52, 5.69, 6.44, 5.69, 5.37, 3.4, 5.06, 7.15, 7.15, -6.71, -6.36, -6.0, -6.23, -6.0, -5.6, -0.0, -0.0, -0.0, -0.0, -5.37, -8.05, -8.05, -8.49, -0.0, -0.0, 7.6, -3.6, -3.8, -5.69, 0.0, 7.6, 5.58, 7.2, 10.28, -6.64, -2.3, -2.53, -2.15, -4.02, -4.0, -2.84, -2.84, -2.0, -1.55, -1.55, -1.55, -1.55, 5.7, 5.7, 5.92, 5.92, 6.4, 6.12, 6.35, 6.76, 6.53, 6.76, 6.76, 6.76, 6.76, 7.19, 7.19, 7.44, 7.69, 7.69, 7.69, 7.83, 8.08, 8.78, 8.78, 8.69, 8.69, 8.25, 7.53, 7.85, 7.6, 7.93, 7.19, 7.54, 7.54, 8.09, 8.09, 8.09, 7.8, 7.36, 7.09, 7.09, 7.15, 6.87, 6.87, 6.58, 6.92, 6.62, 6.28, 6.64, 5.94, 5.89, 6.45, 6.01, 6.28, 5.69, 4.83, 4.22, 5.37, 3.2, 0.0, 7.15, 7.15, -6.71, -6.36, -7.01, -6.94, -5.94, -4.11, -0.0, -0.0, -0.0, -0.0, -5.69, -8.05, 8.49, -0.0, -0.0, -8.05, -3.4, -1.95, -2.54, -2.4, 7.6, 4.11, 2.6, 8.05, 8.05, -2.53, -3.35, -3.07, -3.74, -3.95, -4.8, -6.0, -2.4, -1.41, -1.41, -1.41, -1.41, 5.7, 5.7, 5.7, 5.92, 5.89, 6.12, 6.12, 6.35, 6.53, 6.8, 6.76, 6.76, 6.76, 7.19, 7.19, 7.44, 7.4, 7.4, 7.4, 7.83, 7.83, 8.49, 8.78, 8.78, 8.69, 7.99, 8.31, 7.6, 7.6, 7.93, 7.67, 7.54, 7.54, 8.37, 8.09, 8.09, 7.8, 7.09, 7.09, 7.09, 6.71, 7.15, 6.87, 6.58, 6.92, 6.92, 6.58, 6.58, 6.24, 6.32, 6.32, 6.52, 6.01, 5.03, 4.83, 4.83, 4.22, 3.4, 3.2, 0.0, 7.15, 7.15, -7.15, -6.94, -6.94, -6.36, -5.6, -0.0, -0.0, -0.0, -0.0, -0.0, -0.0, -0.0, -5.69, -5.69, -6.8, -5.69, -2.54, -3.4, -2.4, 0.0, 7.6, 5.81, 7.15, 8.49, -4.0, -3.16, -3.79, -3.22, -4.47, -6.58, -5.21, -1.41, -1.41, 0.0, 0.0, 0.0, 5.7, 5.7, 5.7, 5.7, 5.89, 6.12, 6.12, 6.12, 6.56, 6.8, 6.8, 6.76, 6.76, 7.19, 7.19, 7.16, 7.16, 7.4, 7.4, 7.83, 7.83, 8.08, 8.49, 8.78, 8.11, 8.42, 8.31, 8.05, 7.6, 7.67, 7.67, 7.54, 7.54, 8.01, 8.09, 8.09, 8.16, 7.36, 7.09, 7.09, 7.15, 7.15, 6.87, 6.87, 6.92, 6.51, 6.58, 6.58, 6.24, 6.64, 6.32, 6.01, 5.44, 5.31, 5.03, 4.83, 4.22, 4.22, 3.2, 5.06, 0.0, 7.15, -7.15, -7.6, -7.6, -7.15, -6.26, -6.26, -0.0, -0.0, -0.0, -0.0, -0.0, -0.0, -6.4, -7.6, -7.6, -7.6, -3.4, -2.4, -2.54, -3.6, 0.0, 6.71, 7.15, 9.39, -7.6, -3.48, -3.35, -2.3, -2.48, -5.36, -4.09, -2.73, -1.84, 0.0, 0.0, 0.0, 5.48, 5.48, 5.48, 5.7, 5.89, 5.89, 5.89, 6.12, 6.56, 6.8, 6.8, 6.76, 6.76, 6.76, 7.19, 7.16, 7.4, 6.9, 7.13, 7.4, 7.83, 8.08, 8.08, 8.78, 8.11, 8.42, 8.15, 8.05, 8.05, 7.67, 7.67, 7.54, 7.28, 7.28, 8.09, 8.09, 7.8, 7.36, 7.36, 7.09, 7.44, 7.15, 7.15, 6.87, 7.22, 6.51, 6.88, 6.14, 6.53, 6.18, 6.18, 5.82, 5.44, 5.44, 5.03, 4.14, 4.83, 5.37, 4.22, 5.37, 5.37, 5.37, 7.6, -7.6, -7.6, -7.15, -6.71, -6.71, 6.71, -0.0, -0.0, 8.49, -0.0, -0.0, -7.15, -7.6, -8.05, -8.05, -7.6, -5.69, -3.6, -2.54, 0.0, 5.37, 7.6, 9.39, 0.0, -6.0, -3.91, -2.53, -2.2, -4.66, -5.81, -7.21, -3.8, 0.0, 0.0, 0.0, 5.48, 5.48, 5.48, 5.48, 5.92, 6.16, 6.16, 6.4, 6.12, 6.8, 6.8, 6.53, 6.76, 6.76, 7.19, 7.16, 6.9, 6.9, 7.16, 7.4, 7.83, 7.83, 8.38, 8.38, 8.11, 8.15, 8.15, 8.46, 7.78, 8.1, 7.67, 7.67, 7.73, 7.73, 8.09, 8.09, 7.8, 7.8, 7.09, 7.09, 7.44, 7.15, 7.15, 7.22, 7.22, 6.79, 7.18, 6.42, 6.83, 6.04, 6.18, 5.82, 5.2, 5.44, 4.71, 5.03, 5.69, 4.83, 5.69, 5.37, 5.37, 6.8, 5.37, 8.05, -8.05, -7.6, -7.15, -7.15, -7.15, 6.71, 7.15, 8.94, 8.05, -0.0, -5.06, -7.6, -7.6, -8.05, -7.6, -5.37, -2.54, 0.0, 0.0, 3.4, 5.37, 6.32, 6.64, 7.6, -4.74, -5.36, -3.79, -6.36, -8.05, -8.94, -6.32, 0.0, 0.0, 0.0, 5.48, 5.48, 5.48, 5.23, 5.92, 6.16, 6.16, 6.12, 6.12, 6.35, 6.53, 6.53, 6.76, 6.76, 6.5, 7.16, 6.9, 6.9, 7.16, 7.4, 7.4, 7.83, 7.83, 8.11, 8.11, 8.15, 8.15, 8.15, 8.17, 7.78, 8.1, 7.4, 7.73, 7.73, 8.09, 8.09, 7.8, 7.8, 7.51, 7.09, 6.81, 7.15, 7.15, 7.22, 7.52, 6.79, 7.18, 6.7, 6.83, 6.04, 6.18, 6.11, 5.82, 5.72, 5.44, 5.31, 5.03, 5.69, 5.69, 5.69, 6.7, 5.69, 5.69, 5.69, 8.05, -7.6, -7.15, -7.15, -7.15, 6.71, 7.15, 7.15, 4.74, 6.32, -0.0, -7.15, -7.6, -8.05, -7.6, -5.37, 0.0, 0.0, 0.0, 2.4, 3.2, 6.01, 6.32, 6.01, 7.6, -7.15, -7.15, -8.05, -8.49, -8.49, 0.0, 6.01, 6.01, 6.01, 5.48, 5.48, 5.48, 5.23, 5.92, 6.16, 6.16, 6.12, 6.12, 6.35, 6.53, 6.53, 6.76, 6.76, 6.5, 7.16, 6.9, 6.9, 7.16, 7.4, 7.4, 7.83, 7.83, 8.11, 8.11, 8.15, 8.15, 8.15, 8.17, 7.78, 8.1, 7.4, 7.73, 7.73, 8.09, 8.09, 7.8, 7.8, 7.51, 7.09, 6.81, 7.15, 7.15, 7.22, 7.52, 6.79, 7.18, 6.7, 6.83, 6.04, 6.18, 6.11, 5.82, 5.72, 5.44, 5.31, 5.03, 5.69, 5.69, 5.69, 6.7, 5.69, 5.69, 5.69, 8.05, -7.6, -7.15, -7.15, -7.15, 6.71, 7.15, 7.15, 4.74, 6.32, -0.0, -7.15, -7.6, -8.05, -7.6, -5.37, 0.0, 0.0, 1.84, 1.84, 3.97, 5.37, 6.01, 7.6, 7.6, 7.6, 8.05, -8.49, -8.49, -8.49, 0.0, 6.01, 6.01, 6.01]}, {"header": {"dx": 0.06612293990616946, "dy": 0.0552356325346848, "nx": 98, "ny": 59, "la1": 35.046912555036876, "la2": 31.78801023549047, "lo1": -121.43107172385933, "lo2": -114.95102361305473, "refTime": "2026040815", "parameterCategory": 1, "parameterNumber": 3}, "data": [-12.92, -12.81, -12.87, -13.47, -13.57, -13.02, -12.87, -13.28, -13.57, -13.81, -13.15, -12.07, -12.07, -10.41, -8.43, -6.64, -6.95, -5.46, -4.71, -3.8, -2.33, -0.0, -0.0, 1.63, 2.64, 2.8, 2.32, 1.23, 1.23, 1.52, 1.41, 1.7, -0.0, -0.0, 0.0, 0.0, 0.0, -1.63, -2.12, 0.0, 2.26, 0.0, -1.93, -5.95, -6.4, -7.13, -8.99, -9.8, -11.37, -9.82, -5.4, 11.18, 10.18, 8.55, 8.23, 7.27, 6.58, 4.6, 3.77, 3.39, 2.49, 1.45, 0.0, 0.0, 1.95, 1.18, 1.73, 1.58, 1.54, 1.63, 1.77, 0.89, 0.0, 0.0, 0.0, 0.0, 0.0, -0.89, -2.82, -3.11, 0.0, 0.0, 0.0, 0.0, -4.92, -3.58, 0.0, 0.0, -1.7, -3.68, -4.68, -6.79, -7.13, -7.21, -6.98, -6.79, -7.63, -7.6, -12.92, -12.81, -12.98, -12.87, -13.35, -13.2, -13.44, -13.44, -13.7, -13.99, -13.01, -13.15, -11.62, -10.73, -10.73, -8.8, -6.87, -7.27, -5.86, -4.71, -4.4, -3.3, -1.14, -0.0, 2.47, 3.0, 3.45, 1.32, -0.0, -0.0, -0.0, 1.23, 1.52, 3.22, 6.26, 2.8, 0.0, 0.0, -1.25, -2.82, -1.95, -3.65, -6.5, -8.53, -10.43, -11.59, -11.65, -12.13, -10.22, -6.2, 11.62, 10.18, 7.27, 7.87, 7.68, 7.27, 5.98, 4.6, 4.36, 3.39, 2.23, 2.39, 1.84, 1.84, 2.99, 2.09, 1.84, 1.67, 1.68, 2.41, 2.34, 0.82, 0.0, 0.0, 0.0, 0.0, 0.0, -0.89, -2.82, -3.11, 0.0, 0.0, 0.0, 0.0, -4.92, -3.58, 0.0, 0.0, -1.7, -3.68, -4.68, -6.79, -7.13, -7.21, -6.98, -6.79, -7.63, -7.6, -12.66, -12.92, -12.81, -12.98, -13.15, -13.77, -13.62, -13.43, -14.28, -13.7, -11.87, -10.18, -11.62, -11.18, -9.54, -9.83, -9.33, -8.0, -7.81, -6.3, -5.49, -5.98, -4.6, -3.52, -0.0, 2.12, 3.45, 3.0, -0.0, -2.4, -2.09, -2.09, -0.0, -0.0, 6.26, 0.0, 0.0, -1.14, -2.98, -5.2, -6.95, -8.93, -11.87, -14.5, -15.83, -15.83, -14.75, -12.19, -10.12, 9.6, 10.28, 8.18, 8.18, 7.87, 7.33, 6.3, 5.72, 4.6, 4.18, 2.95, 2.95, 2.13, 3.7, 4.0, 3.99, 3.2, 2.54, 2.35, 2.39, 2.41, 2.34, 1.58, 0.0, -1.68, -2.57, -2.44, -1.56, -1.0, -4.24, -8.93, -6.71, -5.81, -5.36, -4.8, -3.72, -2.84, -4.47, -4.11, -2.8, -3.99, -6.31, -7.59, -8.23, -7.47, -7.33, -5.69, -6.4, -6.71, -12.66, -12.92, -13.23, -12.7, -13.28, -13.56, -14.19, -14.03, -14.03, -13.44, -12.08, -10.47, -11.62, -10.28, -10.08, -10.08, -10.28, -9.6, -8.58, -7.27, -5.36, -4.96, -5.69, -5.86, -4.25, -1.2, 1.01, 2.66, 2.26, -3.4, -5.69, -5.89, -5.1, -5.1, -8.05, -3.6, -4.0, -4.4, -6.42, -8.93, -11.52, -15.13, -16.12, -15.5, -14.51, -12.49, -10.28, -10.18, 9.13, 9.39, 8.67, 8.4, 8.4, 8.05, 7.21, 6.01, 5.72, 4.4, 4.18, 2.95, 1.93, 3.11, 4.66, 5.2, 4.26, 3.91, 3.32, 3.7, 4.4, 4.4, 4.06, 1.77, 0.0, -3.99, -5.36, -6.18, -4.25, -3.04, -5.28, -10.73, -5.64, -4.24, -4.66, -3.93, -3.48, -2.73, -5.36, -2.98, -4.87, -6.59, -7.54, -7.59, -7.4, -7.13, -4.83, -2.12, -1.98, -4.11, -12.66, -12.66, -13.33, -13.23, -13.11, -13.7, -13.97, -13.8, -14.19, -13.2, -11.87, -9.85, -11.02, -10.28, -10.28, -10.73, -10.73, -11.18, -9.7, -8.41, -6.87, -4.96, -4.66, -4.8, -4.8, -4.6, -2.69, -0.0, -3.8, -7.21, -8.06, -8.05, -9.67, -9.65, -10.28, -10.41, -10.05, -9.66, -12.26, -15.12, -15.74, -13.49, -10.58, -8.37, -6.84, -6.2, -5.45, 2.28, 7.6, 6.79, 7.15, 7.15, 7.15, 6.98, 6.64, 6.01, 4.66, 4.88, 3.99, 2.83, 1.93, 3.45, 5.46, 5.53, 5.1, 4.0, 3.45, 3.91, 5.76, 5.76, 5.72, 4.81, 3.41, 0.0, -6.9, -7.2, -6.64, -4.4, -5.4, -10.38, -4.4, -4.57, -4.22, -4.89, -4.43, -4.6, -5.26, -5.06, -6.95, -7.54, -6.86, -5.63, -6.32, -4.74, -2.8, 0.0, -2.32, -3.45, -12.77, -12.77, -13.07, -13.33, -13.23, -13.52, -14.11, -13.97, -13.8, -13.35, -11.54, -9.24, -9.75, -10.08, -10.58, -10.28, -10.73, -11.18, -11.51, -10.55, -9.3, -8.93, -7.95, -6.97, -5.98, -5.72, -6.64, -7.67, -8.3, -9.21, -8.49, -9.39, -9.21, -11.66, -13.39, -12.5, -12.3, -11.88, -13.49, -15.12, -14.3, -12.25, -7.9, -3.82, -2.34, -2.99, -2.41, -0.98, 1.33, 2.97, 3.32, 4.6, 5.59, 6.32, 5.86, 5.21, 4.66, 4.66, 3.11, 2.59, 1.93, 3.7, 5.2, 5.24, 5.1, 4.0, 4.12, 3.33, 4.42, 4.96, 4.44, 4.81, 6.44, 5.6, 0.0, -7.37, -6.23, -4.43, -2.6, -8.91, -5.51, -6.94, -6.7, -6.8, -7.63, -8.46, -8.46, -8.6, -9.17, -8.82, -6.64, -7.27, -5.69, -6.26, -6.26, -2.8, -2.64, -4.71, -12.77, -12.77, -12.77, -13.33, -13.75, -13.92, -13.77, -13.77, -13.97, -12.33, -10.43, -8.48, -9.2, -8.23, -8.22, -9.55, -11.02, -11.62, -12.07, -11.21, -10.66, -11.64, -11.9, -12.27, -12.56, -12.21, -12.62, -12.51, -11.13, -8.72, -9.64, -8.48, -7.51, -9.16, -11.62, -13.41, -13.39, -12.62, -10.59, -11.81, -12.85, -12.0, -12.22, -10.01, -6.94, -5.6, -4.65, -3.16, -1.93, 0.0, 0.0, 2.83, 4.2, 4.2, 4.2, 4.2, 3.7, 3.3, 2.13, 1.76, 1.93, 3.7, 4.44, 3.77, 3.33, 3.4, 3.27, 2.67, 1.96, 0.79, 0.93, 1.84, 2.7, 3.21, 1.5, -3.53, -6.26, -4.92, -3.48, -4.11, -6.26, -8.49, -9.36, -10.16, -11.15, -11.18, -11.51, -11.21, -9.6, -8.8, -8.72, -8.93, -6.26, -1.98, -6.71, -4.43, -4.68, -4.21, -12.25, -12.77, -13.18, -13.6, -14.17, -14.05, -13.92, -13.77, -13.37, -12.04, -10.1, -9.15, -9.75, -9.58, -5.4, -5.52, -9.08, -11.2, -12.14, -12.52, -12.42, -12.22, -11.03, -13.99, -14.18, -13.99, -14.42, -14.44, -12.07, -10.04, -9.32, -11.46, -11.84, -10.4, -10.68, -12.43, -12.94, -10.45, -8.15, -10.4, -11.03, -12.51, -15.93, -16.76, -14.86, -11.5, -7.97, -5.52, -4.4, -4.05, -1.26, 0.0, 2.97, 3.7, 3.7, 3.7, 3.3, 1.84, 0.93, 0.89, 0.93, 1.33, 1.32, 2.49, 4.56, 3.6, 1.67, 0.0, -0.89, -1.73, -0.8, 0.0, -0.93, -2.0, -2.19, 0.0, 2.97, 3.22, 0.0, -3.11, -8.24, -8.36, -9.83, -11.18, -12.07, -12.94, -12.04, -11.18, -10.28, -8.4, -9.83, -4.4, -2.16, -2.8, -6.71, -4.43, -5.2, -4.94, -12.66, -13.07, -13.18, -13.6, -13.89, -13.89, -13.75, -13.59, -12.96, -11.34, -9.96, -9.93, -12.86, -12.9, -11.72, -10.41, -10.41, -11.26, -11.26, -11.2, -12.14, -12.58, -12.04, -12.14, -11.62, -11.03, -8.8, -10.23, -11.63, -10.79, -11.56, -13.81, -14.3, -13.19, -10.93, -11.49, -10.66, -10.65, -9.33, -9.45, -11.13, -13.15, -13.15, -12.58, -11.61, -11.02, -11.4, -9.6, -7.35, -6.04, -4.4, 0.0, 1.54, 2.58, 3.3, 2.97, 2.7, 1.84, 0.85, 0.0, 0.0, 0.0, 0.0, 6.8, 8.48, 3.32, 0.0, 0.0, -1.0, -2.09, -0.89, -1.47, -2.41, -3.19, -2.82, 0.0, 1.07, 1.0, 0.0, 0.0, -7.78, -7.12, -6.79, -8.19, -9.11, -9.97, -9.97, -9.39, 7.21, 4.09, -0.0, -1.83, -2.6, -5.01, -6.07, -4.43, -5.82, -5.69, -13.07, -13.07, -13.48, -13.6, -14.01, -13.89, -13.89, -13.75, -12.79, -11.06, -10.65, -11.06, -11.37, -13.75, -13.81, -13.19, -13.7, -14.13, -14.16, -12.83, -12.52, -12.52, -11.99, -5.8, 5.0, 9.39, -4.71, -8.15, -11.52, -12.21, -14.3, -16.09, -15.2, -13.41, -12.07, -10.28, -7.74, -6.99, -7.6, -8.8, -10.41, -11.03, -6.21, 4.74, 6.71, -8.0, -10.47, -11.49, -11.11, -8.4, -5.69, -1.67, 1.26, 3.14, 2.97, 3.81, 2.7, 0.93, 0.93, 0.0, 0.0, -1.07, 0.0, 8.94, 8.48, 2.99, 0.0, 0.0, 0.0, -2.21, -2.69, -2.89, -3.68, -3.19, -0.79, -0.85, -0.99, -1.84, -0.85, -0.89, -2.81, -11.12, -7.6, -5.15, -3.47, -2.47, 0.0, 1.84, 3.79, 4.47, 2.84, -2.98, -4.8, -6.14, -6.14, -5.58, -6.52, -5.84, -13.07, -13.07, -13.48, -13.6, -13.6, -14.01, -13.89, -13.35, -12.54, -11.2, -11.33, -11.46, -11.5, -12.39, -14.07, -14.11, -15.61, -14.69, -14.81, -15.02, -16.54, -16.54, -15.65, -11.99, 0.0, 0.0, -9.75, -9.2, -10.12, -13.96, -13.41, -12.96, -10.4, -11.62, -11.62, -11.62, -11.18, -9.83, 7.15, 7.6, 0.0, -7.15, 0.0, 8.05, 8.05, 7.15, -7.6, -7.6, -8.05, -7.98, -8.49, -2.69, 2.33, 3.14, 4.44, 3.52, 2.28, 0.0, 0.0, -0.89, -1.75, -2.09, 0.0, 9.39, 7.6, 3.6, 1.58, 0.81, -0.84, -3.6, -4.56, -4.31, -3.91, -2.51, -1.63, -1.52, -2.97, -3.81, -4.2, -4.3, -4.12, -6.94, -10.4, -6.14, -1.14, 0.0, 1.36, 1.4, 0.82, 0.0, 0.0, -4.0, -4.92, -5.64, -5.37, -5.58, -5.93, -6.13, -13.07, -13.07, -13.07, -13.48, -13.6, -13.6, -13.89, -13.19, -12.25, -11.46, -11.73, -11.85, -12.13, -10.92, -9.48, -10.41, -10.94, -13.02, -13.99, -14.86, -13.48, -12.89, -11.62, -11.62, 0.0, 0.0, -0.0, 1.6, 4.4, -4.74, -6.01, 3.0, 5.6, 5.2, 7.27, -10.28, -8.55, 2.54, 2.54, 2.69, 4.46, -0.0, 0.0, 0.0, 5.06, 2.8, -0.0, -5.06, -6.32, -6.44, -7.21, -7.63, 0.0, 3.6, 3.8, 2.06, 0.0, -1.04, -2.97, -4.2, -4.34, -4.0, 9.39, 8.48, 7.44, 4.46, 3.8, 2.35, -0.94, -3.99, -4.96, -4.25, -3.39, -2.95, -1.84, -2.51, -3.39, -5.06, -5.7, -6.09, -5.75, -3.87, -6.95, -6.64, -2.69, -0.94, -0.81, -0.82, 0.0, 0.0, -0.81, -1.49, -0.98, -2.4, -4.19, -4.19, -3.0, -7.15, -13.07, -13.07, -13.07, -13.48, -13.48, -13.6, -13.33, -12.79, -12.79, -11.85, -11.85, -12.25, -12.33, -11.52, -10.27, -8.94, -8.51, -8.53, -8.64, -9.3, -8.22, -6.11, -6.28, -5.81, -0.0, 0.96, 1.41, 2.86, 3.2, 2.23, 0.88, 1.98, 4.43, 5.51, 5.81, 6.71, 6.0, 5.37, 3.4, -0.0, -1.95, -5.72, -6.26, -4.54, -2.98, -4.92, -5.75, -5.59, -6.44, -7.47, -6.98, -7.37, -8.49, -8.49, -9.39, -8.48, -5.37, -1.58, -3.17, -4.94, -6.32, -7.44, -0.0, 4.0, 8.49, 4.22, 3.33, 4.58, 5.37, 0.0, -3.2, -2.82, -2.4, -2.21, -2.97, -3.82, -4.81, -5.52, -5.95, -5.95, -4.87, -4.26, -6.17, -8.49, -5.03, -2.98, -3.98, -3.82, -1.67, -0.85, -0.83, -1.55, -0.79, -1.05, -1.84, -1.1, 4.74, 6.71, -13.07, -13.07, -13.07, -13.07, -13.48, -13.19, -13.33, -12.79, -12.79, -12.11, -11.94, -12.33, -12.72, -12.52, -11.47, -10.4, -8.91, -8.18, -8.05, -8.01, -6.81, -6.36, -7.14, -8.38, -5.69, -0.0, 0.7, 1.76, 2.6, 2.2, 1.55, 1.3, 3.2, 4.43, 6.71, 6.71, 6.71, -0.0, -0.0, -3.4, -6.08, -6.51, -9.83, -10.7, -7.4, -6.26, -5.75, -8.22, -9.75, -9.75, -9.11, -8.94, -10.73, -11.62, -10.28, -8.05, -6.71, -4.74, -2.26, 0.0, -8.0, -8.4, -8.0, -7.6, -7.15, -6.71, 4.43, 6.26, 7.6, 6.26, 6.71, 6.36, 6.71, 0.0, -1.49, -4.05, -4.4, -5.1, -5.76, -4.96, -4.83, -5.89, -6.84, -8.85, -8.8, -6.69, -5.92, -5.1, -2.09, -0.74, -0.67, -1.52, -1.7, -1.7, -1.52, 0.0, 3.47, 3.0, -13.07, -13.07, -12.79, -12.79, -12.79, -13.19, -13.19, -13.19, -12.5, -12.5, -12.33, -12.33, -12.39, -12.76, -12.49, -11.7, -10.47, -9.67, -8.83, -8.57, -7.93, -6.87, -7.01, -7.96, -11.21, -2.49, -0.0, 0.63, 1.19, 1.88, 1.35, 0.79, 1.98, -0.0, 0.0, 0.0, 0.0, 0.0, -0.0, -5.06, -6.94, -7.6, -11.11, -10.68, -5.81, 0.0, 0.0, -6.71, -6.61, -9.21, -10.41, -10.28, -9.83, -0.0, 0.0, 0.0, -6.36, -4.34, -3.16, -0.0, -3.6, -7.2, -7.37, -7.6, -7.6, -7.15, -4.74, 6.71, 6.26, 7.15, 6.71, 6.88, 6.23, 4.84, 0.0, 0.0, -1.95, -4.83, -4.75, -5.03, -4.75, -4.95, -4.83, -4.18, -4.88, -8.55, -6.7, -2.49, 0.0, 0.0, -0.76, -2.18, -2.8, -2.11, -1.72, 0.0, 0.0, 0.0, -13.07, -12.79, -12.79, -12.79, -12.79, -12.79, -12.79, -13.19, -12.9, -12.5, -12.21, -12.39, -12.39, -12.76, -12.49, -12.09, -10.98, -10.25, -9.77, -8.99, -8.36, -7.77, -7.34, -7.25, -8.54, -11.71, -3.11, -0.0, 0.96, 1.35, 1.58, 1.84, 0.99, 3.2, 7.15, 0.0, 0.0, -0.0, -0.0, -5.37, -6.51, -6.71, -7.15, -6.36, -3.0, 8.05, 7.6, 7.15, 0.0, -6.71, -6.71, -7.15, 0.0, 6.71, 6.26, 6.26, 0.0, -7.15, -8.05, -0.0, -0.0, 0.0, -7.15, -7.15, -7.15, -7.15, -6.26, 0.0, 5.37, 6.71, 6.79, 6.45, 6.07, 5.06, -0.0, -0.0, -0.0, 0.0, 0.0, -8.49, -4.0, -4.83, -2.64, -2.67, -2.83, -0.96, -2.54, 0.0, 2.26, 0.0, -0.84, -2.88, -2.98, -2.12, -2.4, -2.47, -2.99, -2.99, -12.79, -12.79, -12.79, -12.52, -12.93, -12.93, -12.93, -13.05, -12.9, -12.9, -12.59, -12.59, -12.39, -12.42, -12.52, -12.11, -11.06, -10.37, -9.58, -9.12, -8.01, -7.77, -7.85, -6.44, -5.93, -5.86, -5.2, -5.0, 0.0, 6.01, 5.06, 4.54, 3.16, 5.06, 5.51, 6.0, 6.0, 5.06, -0.0, -0.0, -5.81, -4.8, -3.0, -3.72, -5.69, 5.69, 8.05, 7.6, 7.15, 6.4, 7.15, 7.15, 7.15, 0.0, 0.0, 0.0, 0.0, 6.01, 0.0, 0.0, 8.94, 8.49, 6.8, 6.4, 5.06, 0.0, 0.0, 0.0, 7.6, 6.36, 5.95, 2.12, -0.0, -5.37, -2.54, 2.06, 4.2, 4.6, 3.25, -0.0, -0.0, -6.01, -3.6, -3.55, -3.77, -1.98, 0.0, 0.0, 0.0, -2.51, -3.65, -3.77, -4.01, -3.79, -4.12, -4.16, -4.11, -4.11, -12.79, -12.79, -12.79, -12.39, -12.52, -12.66, -12.66, -12.66, -13.05, -12.59, -12.59, -12.59, -12.39, -12.42, -12.16, -10.78, -10.75, -10.01, -9.02, -8.1, -7.03, -7.23, -6.8, -5.89, -3.96, -3.68, -4.24, -2.54, -1.77, 0.0, 9.39, 6.4, 4.22, 2.68, 3.07, 4.29, 3.79, 4.43, -0.0, 0.0, 0.0, -0.0, -5.06, -5.37, -3.8, -0.0, -0.0, 8.05, 8.05, 8.05, 8.05, 8.05, 7.6, 0.0, 0.0, 0.0, 0.0, 0.0, 6.32, 6.32, 6.32, 6.01, 7.2, 7.6, 7.15, 6.26, 0.0, -5.06, 0.0, 5.06, -0.0, -5.37, -6.01, -6.32, -2.28, 4.0, 6.64, 6.95, 5.46, 3.8, 2.26, 4.74, 0.0, -4.74, -5.06, -5.06, -4.95, -0.96, -3.0, -4.42, -3.3, -3.17, -4.74, -5.69, -5.1, -4.74, -4.84, -4.84, -12.79, -12.79, -12.39, -12.39, -12.26, -12.26, -12.66, -12.66, -13.05, -12.59, -12.59, -12.59, -12.27, -12.05, -12.39, -12.76, -10.46, -10.75, -8.31, -6.57, -5.74, -6.6, -7.53, -7.69, -6.21, -5.18, -5.2, -6.95, -6.65, -8.22, 10.28, 7.47, 5.37, 2.79, 3.14, 2.84, 2.3, 1.41, -0.0, -0.0, -0.0, 0.0, -0.0, -0.0, -0.0, -0.0, -0.0, 6.01, 8.49, 8.49, 8.49, 8.05, 8.05, 0.0, 0.0, 0.0, 0.0, 0.0, 0.0, 0.0, 0.0, 6.01, 8.05, 6.71, 6.36, 5.94, 0.0, -3.97, -4.22, -6.32, -9.83, -10.73, -10.8, -10.8, 0.0, 7.27, 9.83, 9.39, 4.0, 3.6, 2.12, 4.43, 0.0, -5.58, -6.7, -7.07, -8.03, -8.31, -7.9, -7.47, -5.69, -4.21, -5.69, -6.96, -6.39, -5.77, -5.46, -5.46, -12.79, -12.79, -12.39, -12.39, -12.26, -12.26, -12.66, -12.38, -12.77, -12.77, -12.59, -12.59, -12.27, -12.05, -12.05, -11.44, -11.15, -10.81, -9.26, -8.21, -7.98, -7.29, -8.18, -10.52, -10.96, -9.8, -10.75, -9.17, -9.48, -8.94, 0.0, 8.24, 5.81, 3.45, 2.79, 2.23, 2.79, 2.4, 1.84, -0.0, -0.0, 3.0, 4.43, 3.22, 1.84, -0.0, -0.0, 6.01, 6.01, 8.05, 8.05, 8.05, 7.6, 8.05, 7.15, 0.0, 0.0, 0.0, 0.0, 0.0, 0.0, 8.05, 8.05, 6.8, 5.94, 5.6, 0.0, 0.0, 0.0, 1.4, 1.39, 1.05, 0.0, -1.15, -2.91, -5.4, -6.71, -8.55, 1.95, 1.73, -0.0, 5.06, 6.71, 5.81, -5.6, -5.75, -4.43, -3.63, -7.9, -6.87, -6.32, -6.79, -7.06, -8.0, -8.14, -7.44, -6.82, -6.82, -12.39, -12.79, -12.39, -12.11, -12.26, -12.26, -12.38, -12.38, -12.77, -12.77, -12.59, -12.59, -12.27, -12.27, -12.07, -12.07, -11.44, -10.76, -10.01, -11.8, -12.01, -9.66, -10.23, -10.37, -10.75, -10.43, -10.12, -11.29, -10.87, -10.41, 0.0, 5.94, 4.4, 2.5, 2.53, 2.84, 2.3, 2.2, 2.98, 3.47, 2.12, 2.12, 1.98, 1.84, 1.7, -0.0, -0.0, 3.8, 6.01, 5.69, 7.6, 7.6, 7.6, 7.6, 0.0, 0.0, 0.0, 0.0, 0.0, 0.0, 0.0, 0.0, 5.69, 3.4, 2.8, 4.43, -0.0, 0.0, 4.22, 5.15, 4.34, 3.53, 0.99, -0.99, -4.65, -7.95, -10.09, -11.18, -0.0, -0.0, -0.0, -0.0, 5.6, 4.46, 4.11, -0.0, -0.0, -4.11, -1.6, -3.33, -6.01, -7.4, -8.23, -6.94, -7.06, -7.6, -6.94, -6.94, -12.39, -12.39, -12.11, -12.11, -12.26, -12.26, -11.99, -12.38, -12.77, -12.77, -12.59, -12.59, -12.27, -12.27, -11.96, -12.07, -11.44, -10.77, -10.7, -11.45, -11.79, -10.95, -10.25, -11.06, -11.06, -10.18, -8.85, -9.8, -10.4, -7.6, 0.0, 4.02, 3.82, 3.6, 3.58, 2.95, 2.95, 2.4, 2.98, 3.22, 3.22, 3.22, 1.7, 1.7, 1.55, -0.0, -0.0, 3.6, 5.69, 5.37, 5.06, 7.6, 7.6, 7.6, 0.0, 0.0, 0.0, 0.0, 0.0, 0.0, 0.0, 5.37, 5.37, 3.4, 5.06, 4.74, 4.43, 0.0, 6.71, 7.2, 6.32, 4.6, 6.95, 6.71, -6.32, -9.58, -10.35, -11.45, 6.2, -0.0, -1.73, -0.0, -0.0, 1.52, 1.98, -0.0, -2.6, -5.64, -4.71, -3.61, -6.44, -7.27, -7.74, -6.08, -5.2, -4.93, -6.4, -6.4, -12.39, -12.39, -12.39, -12.11, -12.26, -12.26, -11.99, -12.38, -12.77, -12.77, -13.15, -12.65, -12.27, -12.27, -11.96, -12.0, -11.73, -10.73, -10.44, -10.76, -10.98, -9.77, -8.94, -9.7, -10.75, -10.34, -9.39, -8.66, -7.9, -8.05, -7.15, 0.0, 4.4, 4.09, 4.09, 3.79, 4.11, 3.22, 3.22, 3.22, 2.98, 2.98, 2.98, 2.73, 2.48, 2.73, 3.6, 3.4, 5.06, 5.06, 5.37, 5.37, 7.6, 7.6, 0.0, 0.0, 0.0, -0.0, 0.0, -7.15, 0.0, 0.0, 8.05, 5.37, 5.06, 4.74, 6.26, 0.0, 0.0, 0.0, 0.0, 0.0, 6.07, 6.26, -5.36, -8.6, -10.46, -11.18, 7.27, 4.2, -0.0, -1.73, -0.0, -1.73, -1.73, -3.72, -6.58, -7.1, -7.44, -7.59, -7.8, -8.27, -7.59, 0.0, 0.0, -3.93, -5.43, -5.43, -12.39, -12.39, -12.39, -12.11, -12.11, -12.26, -11.99, -12.38, -12.47, -12.47, -12.85, -12.85, -12.65, -12.27, -12.32, -12.0, -11.68, -11.06, -10.44, -10.43, -9.66, -9.23, -7.77, -7.93, -9.4, -10.43, -10.04, -9.67, -8.53, -8.18, -4.2, 0.0, 7.15, 5.6, 5.21, 5.21, 4.74, 3.72, 3.47, 3.47, 3.22, 3.79, 3.48, 2.95, 2.68, 2.3, 2.4, 5.37, 5.37, 5.69, 6.01, 5.69, 7.6, 7.6, 7.6, 0.0, 6.26, 0.0, 0.0, -7.15, -5.81, 0.0, 0.0, 0.0, 4.43, 5.36, 0.0, 0.0, -5.37, -5.37, -5.06, -0.0, 4.74, 0.0, 0.0, -5.81, -7.6, 0.0, 8.94, 6.32, 4.74, -0.0, -1.32, -4.02, -5.37, -6.4, -7.15, -7.55, -7.35, -5.58, -7.02, -6.21, -4.11, 0.0, -1.27, -3.84, -4.46, -4.46, -12.39, -12.39, -12.39, -12.11, -11.72, -11.72, -11.99, -12.38, -12.09, -12.47, -12.85, -12.85, -12.85, -12.65, -12.32, -12.0, -11.33, -11.06, -10.73, -10.43, -10.06, -9.33, -8.18, -7.77, -8.29, -9.4, -10.12, -9.8, -9.36, -8.59, -7.27, -4.4, 0.0, 0.0, 5.06, 5.06, 5.37, 5.37, 3.97, 3.47, 3.22, 2.98, 2.95, 3.48, 3.07, 2.2, 2.16, 3.45, 4.29, 5.06, 5.36, 7.6, 5.37, 7.6, 7.6, 7.15, 6.71, 5.81, 0.0, -6.71, -5.81, -4.92, -4.11, -0.0, 4.8, 7.15, 8.49, 0.0, 0.0, -3.2, -3.6, -6.8, -7.15, -6.71, -0.0, -0.0, 0.0, 0.0, 8.05, 6.79, 6.36, 4.43, -1.52, -4.02, -5.37, -6.4, -7.08, -7.15, -7.15, -5.6, -4.43, -7.6, -3.22, -1.99, -2.2, -3.72, -3.79, -3.79, -12.39, -12.39, -11.99, -11.72, -11.72, -11.72, -12.11, -12.38, -12.47, -12.47, -12.47, -12.85, -12.85, -13.23, -12.68, -12.0, -11.33, -11.33, -11.06, -10.75, -10.72, -10.02, -9.02, -8.64, -8.58, -8.56, -8.95, -9.89, -9.77, -9.3, -7.9, -6.44, -6.95, 0.0, 0.0, 5.69, 5.69, 5.69, 5.37, 2.26, 1.98, 3.22, 2.98, 3.22, 2.76, 2.76, 2.99, 4.02, 5.06, 4.47, 5.59, 4.43, 5.37, 6.8, 6.8, 6.8, 5.06, 6.71, 0.0, 0.0, -7.6, -7.15, 0.0, 2.53, 5.81, 8.49, 8.94, 0.0, -0.0, -7.15, -5.37, -6.64, -6.32, -6.4, -7.15, -0.0, -0.0, 0.0, 7.15, 7.6, 6.4, 5.6, -0.0, -3.47, -4.02, -5.72, -6.8, -7.37, -5.95, -3.91, -4.43, -6.26, -4.19, -4.36, -4.29, -4.29, -3.79, -3.79, -11.99, -11.99, -11.99, -11.72, -11.72, -12.11, -12.11, -12.38, -12.47, -12.47, -12.47, -12.85, -12.85, -13.23, -12.91, -12.0, -11.64, -11.33, -11.06, -11.07, -11.06, -10.72, -9.73, -8.75, -8.64, -9.22, -9.24, -9.92, -9.77, -9.17, -8.49, -7.27, -6.3, -5.63, -6.32, -8.49, 0.0, 0.0, 6.01, 5.37, -0.0, -0.0, -0.0, 2.4, 3.49, 3.49, 4.11, 4.43, 4.74, 5.24, 4.74, 4.81, 4.46, 3.84, 5.01, 5.58, 5.37, 6.71, 6.26, 6.71, 0.0, -7.6, 0.0, 5.81, 0.0, 0.0, 0.0, 0.0, -7.6, -7.15, -6.8, -6.44, -6.01, -5.69, 0.0, 7.6, 4.74, 0.0, 0.0, 0.0, -0.0, 4.11, 5.36, -0.0, -3.76, -4.43, -6.08, -6.8, -5.06, -5.24, -4.81, -6.2, -5.21, -6.44, -6.06, -5.06, -4.74, -4.74, -11.99, -11.99, -11.72, -11.72, -11.72, -12.11, -12.11, -12.21, -12.77, -12.17, -12.17, -12.85, -12.85, -13.23, -12.68, -12.68, -11.39, -11.39, -11.4, -11.39, -11.39, -10.42, -9.73, -9.42, -9.06, -9.58, -9.6, -10.12, -10.23, -9.66, -8.41, -7.74, -6.11, -6.32, -6.32, -6.32, -6.32, 0.0, 0.0, 0.0, -0.0, -0.0, -0.0, 4.11, 4.43, 4.43, 4.74, 4.74, 5.24, 4.89, 4.89, 4.46, 4.12, 3.78, 3.78, 4.43, 6.8, 7.15, 6.26, 6.71, 0.0, 0.0, 0.0, 7.6, 0.0, 0.0, 0.0, 0.0, -7.6, -7.6, -6.7, -5.69, -6.01, -7.15, -7.6, -0.0, 2.6, -0.0, 0.0, 0.0, 0.0, -0.0, 5.36, 0.0, 0.0, -3.79, -4.43, -3.97, -5.06, -5.72, -5.06, -6.23, -6.02, -6.25, -6.7, -6.35, -5.72, -5.72, -11.99, -11.99, -11.72, -11.72, -11.72, -12.11, -12.11, -12.21, -12.77, -12.47, -12.17, -12.54, -12.85, -12.91, -12.91, -12.68, -11.73, -11.39, -11.4, -11.73, -11.39, -10.42, -10.1, -9.44, -9.06, -9.38, -9.66, -10.12, -10.59, -9.66, -8.94, -7.74, -6.18, -6.32, -5.59, -6.32, -6.32, -6.32, 0.0, 0.0, 0.0, -0.0, -0.0, 0.0, 7.15, 5.94, 4.65, 4.89, 4.89, 5.24, 4.89, 4.12, 3.78, 3.48, 3.48, 3.16, 4.74, 7.15, 6.26, 6.71, -0.0, -0.0, 0.0, 0.0, 0.0, 0.0, 0.0, 0.0, 0.0, -8.05, -7.63, -4.14, -4.21, -5.72, -9.21, -2.83, -0.0, -0.0, 0.0, 0.0, 0.0, 0.0, 4.43, 4.92, 4.47, -0.0, -2.4, -3.47, -4.74, -4.74, -3.72, -5.36, -6.2, -6.55, -7.47, -7.28, -7.28, -7.28, -11.99, -11.99, -11.72, -11.72, -11.72, -12.11, -12.11, -12.21, -12.77, -12.47, -12.17, -12.17, -12.54, -12.91, -12.91, -12.68, -12.08, -11.73, -11.09, -11.4, -11.39, -10.75, -10.75, -10.1, -9.44, -9.09, -9.37, -10.54, -10.47, -9.66, -8.94, -7.74, -6.95, -6.64, -6.64, -5.86, -5.63, -5.21, -6.32, -6.01, 0.0, 0.0, 0.0, 5.36, 3.48, 5.37, 7.21, 3.22, 3.22, 3.14, 3.49, 3.49, 3.78, 3.48, 3.48, 3.48, 3.48, 3.49, 5.21, 4.43, 1.63, -0.0, -0.0, -6.01, 0.0, 0.0, -0.0, 0.0, 0.0, -7.6, -7.81, -5.37, -2.83, -3.32, -6.69, -9.97, -0.0, -0.0, -1.7, -6.26, -4.4, -6.26, -0.0, 2.6, 2.84, 3.35, 1.27, -0.0, -1.41, -0.0, -0.0, -4.84, -5.09, -7.15, -7.92, -7.98, -8.14, -8.14, -11.99, -11.99, -11.72, -11.72, -11.72, -12.11, -12.11, -12.21, -12.59, -12.47, -12.47, -12.17, -12.54, -12.91, -12.91, -12.91, -12.08, -11.73, -11.73, -11.09, -11.09, -10.75, -10.42, -10.42, -10.42, -9.76, -9.76, -9.8, -10.12, -9.08, -8.75, -8.41, -7.59, -6.95, -6.11, -6.01, -5.86, -5.63, -6.64, -6.32, -5.69, 0.0, 0.0, 5.36, 4.8, -0.0, 3.2, 3.72, 2.86, 3.22, 3.14, 3.49, 3.16, 3.48, 3.15, 2.86, 2.86, 3.12, 3.43, 2.32, -0.0, -1.84, -3.8, -6.01, 0.0, 0.0, 0.0, -7.6, -6.26, -4.43, -5.4, -5.4, -3.45, -0.94, -2.71, -5.92, -10.28, 2.17, -0.0, -5.2, -6.71, -4.4, -0.0, -0.0, 1.7, 2.73, 2.84, 2.23, 1.13, 2.53, 3.58, -4.0, -5.44, -6.55, -8.05, -8.82, -8.67, -8.67, -11.99, -11.99, -11.99, -11.72, -11.72, -12.11, -12.11, -12.21, -12.59, -12.47, -12.47, -12.17, -12.17, -12.54, -12.91, -12.91, -12.35, -12.08, -12.08, -11.4, -11.09, -10.75, -11.06, -10.72, -10.42, -10.09, -10.07, -9.89, -9.53, -8.82, -8.53, -8.53, -7.9, -7.27, -6.95, -6.95, -6.3, -6.14, -5.63, -6.32, -6.01, -5.37, 0.0, 4.11, 2.8, -0.0, -0.0, 3.47, 4.43, 4.43, 4.11, 4.19, 3.48, 2.84, 2.86, 2.86, 2.84, 2.4, 2.18, 1.41, -0.0, -1.84, -3.8, -5.69, 0.0, 0.0, 0.0, -5.37, -6.4, -5.58, -5.2, -6.79, -8.0, -2.17, -1.07, -5.54, -9.39, 2.26, -0.0, -2.8, -8.05, -9.39, -9.39, -4.43, -0.0, 2.4, 3.47, 2.23, 2.73, 3.35, 4.02, 0.0, -4.41, -5.86, -7.6, -8.49, -8.46, -8.46, -11.85, -11.85, -11.99, -11.72, -11.72, -12.11, -12.11, -12.21, -12.59, -12.47, -12.47, -12.17, -12.17, -12.17, -12.91, -12.91, -12.35, -12.35, -12.08, -11.4, -11.73, -11.06, -11.06, -10.75, -10.42, -10.09, -10.12, -10.24, -9.66, -9.53, -8.69, -8.69, -7.59, -8.07, -7.27, -7.13, -6.95, -6.3, -5.86, -6.64, -6.32, -5.69, -7.15, -0.0, -0.0, -0.0, 2.54, 4.22, 5.06, 5.06, 4.74, 4.43, 3.35, 3.07, 2.48, 2.48, 2.22, 1.73, 1.16, 0.61, -0.0, -3.4, -0.0, 0.0, 8.05, 7.6, 7.6, 5.06, 0.0, -5.69, -8.05, -8.49, -7.63, -6.01, -2.95, -3.68, -4.4, -0.0, 7.6, 0.0, -3.8, -9.75, -10.18, -9.83, -8.05, -0.0, 3.2, 2.53, 3.79, 3.72, 4.24, 3.58, -3.58, -5.64, -6.79, -8.05, -8.05, -8.05, -11.46, -11.46, -11.85, -11.72, -11.72, -12.11, -12.11, -12.21, -12.21, -12.47, -12.47, -12.17, -12.17, -12.17, -12.54, -12.91, -12.6, -12.0, -11.73, -12.08, -11.73, -11.73, -11.06, -10.75, -10.75, -10.09, -10.12, -9.85, -10.63, -10.03, -9.89, -8.47, -7.59, -7.59, -7.59, -7.27, -7.13, -6.64, -6.64, -7.33, -7.15, -6.7, -6.8, -7.15, -0.0, -0.0, 2.4, 4.22, 5.69, 5.69, 5.37, 4.74, 3.91, 3.63, 3.35, 2.48, 2.23, 1.76, 1.08, 0.63, -0.0, -0.0, 0.0, 0.0, 5.06, 5.06, 6.4, 6.71, 0.0, 0.0, -0.0, -8.94, -7.6, -6.55, -6.87, -5.4, -0.0, 10.73, 7.59, 2.39, 0.0, -3.82, -7.27, -8.23, -8.55, -7.6, 0.0, 4.0, 4.66, 4.0, 3.6, 3.47, 2.68, -3.82, -6.36, -7.45, -8.01, -8.01, -11.46, -11.46, -11.85, -11.56, -11.56, -11.72, -12.11, -12.21, -12.21, -12.47, -12.47, -12.17, -12.17, -12.17, -12.54, -12.6, -12.24, -12.0, -11.73, -12.08, -11.73, -11.73, -11.06, -10.7, -10.75, -10.43, -10.46, -10.52, -10.24, -10.03, -9.42, -8.47, -7.59, -7.59, -7.06, -7.27, -7.47, -7.47, -6.64, -6.87, -6.98, -6.44, -6.32, -6.4, -7.15, -0.0, -0.0, 2.4, 4.22, 5.69, 4.56, 4.29, 3.68, 3.22, 2.99, 2.98, 2.73, 2.0, 1.8, 1.66, 1.41, -0.0, -0.0, -0.0, 5.69, -0.0, 5.06, 5.06, -0.0, -0.0, -5.06, -8.49, -6.32, -5.36, -6.44, -3.68, 2.93, 7.51, 6.67, 2.06, 0.0, -2.02, -4.6, -6.01, -6.44, -5.94, 0.0, 5.36, 4.92, 4.77, 4.15, 4.15, 2.97, 0.0, -4.85, -7.28, -8.38, -8.38, -11.46, -11.46, -11.85, -11.56, -11.56, -11.56, -12.11, -11.82, -12.21, -12.09, -12.47, -12.17, -12.17, -12.17, -12.17, -12.24, -12.24, -12.0, -11.73, -12.08, -11.73, -11.73, -11.06, -11.06, -11.06, -10.43, -10.46, -10.86, -10.24, -9.96, -8.97, -8.35, -7.59, -7.13, -7.59, -6.77, -6.95, -7.47, -7.47, -7.21, -7.44, -6.28, -6.08, -5.95, -6.4, -7.15, -0.0, -0.0, 5.37, 4.22, 5.37, 4.29, 4.02, 3.22, 2.99, 2.76, 2.2, 2.48, 1.8, 2.3, 2.0, 2.2, -0.0, 3.2, -0.0, 0.0, 0.0, 0.0, 0.0, 0.0, -8.49, -7.15, -4.2, -2.28, -3.08, -3.39, 0.0, 2.71, 1.77, 0.0, 0.0, 0.0, -1.52, -2.73, -4.09, -4.66, -3.48, 0.0, 4.47, 4.66, 4.77, 4.15, 3.2, 3.58, -4.02, -5.29, -8.67, -8.67, -11.46, -11.46, -11.85, -11.85, -11.56, -11.56, -12.11, -11.82, -12.21, -11.9, -12.09, -12.47, -12.17, -12.17, -12.17, -12.24, -12.24, -12.24, -12.0, -12.08, -12.08, -11.73, -11.41, -11.41, -10.75, -10.75, -10.81, -10.86, -10.24, -9.96, -8.93, -8.64, -7.9, -7.42, -7.13, -6.83, -6.95, -6.95, -7.13, -7.64, -6.87, -6.7, -6.13, -7.07, -5.58, -5.06, -7.6, 0.0, 3.4, 5.37, 3.97, 3.0, 3.0, 2.8, 2.99, 2.76, 2.53, 2.48, 2.0, 2.3, 2.0, 1.55, -0.0, -0.0, -0.0, 0.0, 8.05, 5.69, -0.0, 0.0, 0.0, 0.0, 0.0, 0.0, -2.02, -3.25, -4.2, -3.3, -5.2, -6.45, -4.6, 0.0, 0.0, 0.0, -3.16, -4.47, -4.92, -4.92, 0.0, 4.92, 4.66, 4.0, 3.58, 3.35, 4.02, -4.47, -5.34, -7.47, -11.46, -11.46, -11.46, -11.85, -11.56, -11.56, -11.94, -11.82, -12.21, -11.9, -12.09, -12.09, -11.81, -11.81, -12.17, -12.24, -12.24, -12.24, -12.0, -12.08, -12.08, -11.73, -11.41, -11.41, -11.06, -11.11, -10.81, -10.52, -10.58, -9.96, -9.62, -8.22, -7.48, -7.48, -7.48, -7.13, -6.95, -7.4, -7.51, -7.13, -7.28, -6.91, -5.95, -7.2, -5.06, -5.37, -6.32, -7.6, -0.0, 3.2, 3.97, 3.72, 2.8, 2.8, 2.6, 2.76, 2.53, 2.3, 2.79, 2.79, 2.68, 3.48, 5.69, -0.0, -0.0, 0.0, 6.01, -0.0, -0.0, 0.0, 0.0, 0.0, 0.0, -1.47, -1.07, -3.25, -5.2, -6.64, -8.85, -9.77, -7.81, -6.8, -4.74, -3.48, 0.0, 0.0, -3.79, -5.36, 0.0, 0.0, 4.4, 3.72, 3.58, 2.23, 1.27, -0.0, -3.79, -5.34, -11.46, -11.46, -11.46, -11.85, -11.56, -11.56, -11.56, -11.82, -12.21, -11.9, -12.09, -12.09, -12.09, -11.81, -12.17, -11.88, -12.24, -12.24, -12.0, -11.73, -12.08, -11.73, -11.41, -11.09, -10.75, -10.43, -10.81, -10.55, -10.55, -10.63, -9.96, -8.93, -8.22, -7.82, -7.48, -7.18, -7.27, -7.35, -7.06, -7.51, -7.15, -7.2, -6.6, -6.0, -7.6, -6.44, -6.9, -7.21, -7.6, -0.0, 3.0, 2.12, 1.98, 2.8, 2.6, 3.22, 2.95, 2.79, 2.79, 2.79, 3.16, 4.09, 4.8, 8.05, 0.0, 5.69, 5.37, -0.0, -0.0, -8.05, -7.6, -7.6, -8.49, -4.96, 0.0, 0.0, -2.69, -4.87, -7.13, -7.27, -4.19, -3.48, -4.43, -2.6, 0.0, 0.0, 0.0, 0.0, -2.6, 0.0, 0.0, 3.48, 3.16, 1.98, 1.27, -0.0, -1.7, -3.79, -11.46, -11.46, -11.46, -11.46, -11.56, -11.56, -11.56, -11.82, -11.82, -12.21, -12.09, -12.09, -12.09, -11.81, -12.17, -12.09, -12.24, -12.24, -12.24, -12.0, -11.73, -11.73, -11.41, -11.41, -11.11, -10.81, -10.86, -10.9, -10.55, -10.28, -10.28, -9.62, -8.53, -8.22, -7.52, -7.22, -7.27, -7.27, -7.35, -7.41, -7.51, -6.79, -6.82, -6.21, -6.99, -8.72, -7.01, -5.81, -6.26, -0.0, -0.0, 2.8, 1.98, 1.98, 3.22, 2.4, 3.22, 3.16, 3.48, 3.48, 3.49, 3.58, 6.8, 7.6, 8.05, 0.0, -0.0, 0.0, 0.0, -8.05, -8.05, -7.6, -8.49, -7.6, -3.8, 0.0, 0.0, -3.45, -4.81, -3.48, -3.16, -2.2, -0.96, 0.0, 0.0, 0.0, 0.0, 0.0, 0.0, -1.63, -3.2, 0.0, -0.0, 1.6, -0.0, -1.41, -3.79, -3.79, -11.3, -11.3, -11.46, -11.46, -11.17, -11.56, -11.56, -11.82, -11.82, -11.82, -11.53, -12.09, -12.09, -11.81, -11.81, -12.37, -12.09, -12.24, -11.88, -12.24, -11.73, -11.73, -11.09, -11.09, -11.44, -11.15, -10.52, -10.55, -10.19, -10.28, -10.28, -9.62, -8.9, -8.16, -7.85, -7.9, -7.59, -7.64, -7.68, -7.76, -7.41, -7.15, -6.44, -6.44, -7.28, -7.28, -7.15, -5.81, -4.92, -5.36, -0.0, -0.0, -0.0, 1.84, 1.7, 2.98, 2.95, 2.95, 3.48, 3.48, 3.84, 3.84, 4.4, 5.69, 8.05, 0.0, 0.0, 0.0, 0.0, -7.6, -8.05, -7.6, -8.94, -7.21, -8.06, -5.06, -2.32, -4.71, -7.81, -6.94, -4.74, 0.0, 0.0, 0.0, 0.0, 0.0, 0.0, 0.0, 0.0, -1.1, -1.73, -3.4, -5.36, -3.16, -3.16, -4.92, -4.92, -4.92, -11.3, -11.3, -11.3, -11.46, -11.17, -11.56, -11.56, -11.44, -11.82, -11.82, -11.53, -11.72, -12.09, -11.81, -11.81, -12.37, -12.09, -11.88, -11.88, -12.24, -12.0, -11.73, -11.44, -11.44, -11.1, -10.81, -10.82, -10.81, -10.19, -10.19, -9.92, -9.57, -8.9, -8.53, -8.22, -7.55, -7.9, -7.59, -7.64, -7.35, -7.41, -7.06, -6.79, -6.44, -6.45, -6.63, -6.8, -6.71, -6.26, -5.81, -3.79, -0.0, -0.0, -0.0, 1.7, 2.73, 3.48, 3.48, 3.79, 4.19, 4.19, 3.84, 3.93, 5.37, 0.0, 0.0, 0.0, 0.0, 0.0, -7.6, -7.6, -8.05, -8.05, -8.24, -6.9, -6.9, -4.83, -2.17, -4.8, 0.0, 3.04, 4.87, 2.72, 1.25, 0.0, 0.0, 0.0, 0.0, -0.78, -0.89, -2.32, -4.43, -5.2, -4.47, -4.47, -4.92, -4.92, -4.92, -10.91, -10.91, -11.3, -11.3, -11.17, -11.17, -11.56, -11.44, -11.44, -11.82, -11.53, -11.72, -12.09, -11.81, -11.81, -12.37, -12.09, -11.88, -11.88, -11.88, -12.0, -11.73, -11.44, -11.44, -11.44, -11.45, -11.09, -10.47, -10.45, -9.84, -9.84, -9.21, -9.21, -8.53, -8.53, -8.22, -7.9, -7.94, -7.97, -8.03, -7.76, -7.41, -7.15, -6.79, -6.44, -6.01, -6.63, -7.81, -7.15, -7.15, -6.71, -4.43, -0.0, -0.0, 2.4, 3.79, 3.79, 3.79, 4.29, 4.19, 4.46, 4.46, 4.6, 4.09, 0.0, 0.0, 0.0, 0.0, 0.0, 0.0, -0.0, -7.6, -8.05, -8.24, -6.79, -5.1, -3.32, 0.0, 0.0, 4.24, 8.18, 7.88, 4.95, 2.4, 0.0, 0.0, 0.0, 0.0, -0.83, -0.82, 0.0, -5.36, -5.36, -4.92, -4.47, -4.92, -4.92, -4.92, -10.91, -10.91, -10.91, -11.3, -11.17, -11.17, -11.56, -11.26, -11.44, -11.82, -11.53, -11.72, -12.09, -12.09, -11.81, -12.37, -12.37, -12.09, -11.88, -11.88, -11.64, -11.39, -11.73, -11.73, -11.39, -11.45, -11.1, -10.47, -10.12, -9.84, -9.84, -9.84, -9.21, -8.87, -8.87, -8.22, -7.9, -7.94, -7.97, -7.64, -7.68, -7.41, -7.06, -6.79, -6.79, -6.45, -6.52, -7.28, -7.63, -7.6, -7.15, -6.71, -0.0, -0.0, -0.0, 2.4, 3.79, 4.84, 4.11, 4.11, 4.11, 4.54, 4.98, 5.09, 5.36, 0.0, 0.0, 0.0, 7.6, 5.37, 2.4, -0.0, -5.69, -8.05, -8.49, 0.0, 0.0, 0.0, 1.22, 5.45, 6.86, 6.4, 3.69, 1.21, 0.0, 0.0, 0.0, 0.0, 0.0, 0.0, 0.0, -4.02, -4.47, -4.47, -4.77, -4.77, -4.77, -4.77, -10.91, -10.91, -10.91, -11.3, -11.17, -11.17, -11.17, -11.26, -11.44, -11.82, -11.53, -11.72, -11.72, -12.09, -11.81, -11.99, -11.99, -11.72, -11.52, -11.52, -11.64, -11.39, -11.39, -11.73, -11.73, -11.72, -11.44, -11.09, -10.47, -10.45, -9.84, -9.84, -9.84, -8.87, -8.87, -8.54, -8.57, -7.9, -7.94, -7.64, -7.68, -7.69, -7.06, -7.06, -6.79, -6.79, -6.91, -7.07, -6.79, -7.2, -7.21, -7.15, -7.15, 0.0, 0.0, 4.11, 5.2, 4.11, 4.43, 4.43, 4.43, 4.43, 4.98, 5.64, 5.36, 0.0, 0.0, 0.0, 0.0, 3.4, 4.46, -0.0, -0.0, -0.0, -0.0, -0.0, 0.0, 0.0, 4.2, 6.64, 5.72, 4.99, 3.58, 4.11, 3.56, 1.76, 0.0, 0.0, 2.8, 2.48, 1.6, -0.0, -4.47, -4.47, -4.92, -4.92, -4.92, -4.92, -10.91, -10.91, -10.91, -10.91, -11.17, -11.17, -11.17, -11.26, -11.44, -11.44, -11.53, -11.72, -11.72, -12.09, -11.99, -11.99, -11.99, -11.99, -11.52, -11.52, -11.88, -11.39, -11.73, -12.0, -12.07, -11.72, -11.44, -11.09, -10.47, -10.81, -10.45, -9.84, -9.84, -9.16, -8.87, -8.54, -8.57, -8.24, -8.27, -7.94, -7.64, -7.68, -7.41, -7.06, -6.73, -6.79, -6.45, -6.52, -7.07, -6.9, -7.2, -6.8, -7.15, 0.0, 0.0, 0.0, 5.81, 5.2, 4.43, 3.76, 3.91, 4.43, 4.43, 5.2, 5.36, 8.05, 0.0, 0.0, 0.0, 0.0, 8.49, 3.8, -0.0, -0.0, -0.0, -0.0, 0.0, 6.32, 7.15, 6.32, 5.21, 3.25, 5.8, 7.93, 7.44, 5.95, 7.6, 5.81, 2.73, 3.48, 2.23, -0.0, -2.84, -4.24, -4.92, -4.92, -4.92, -4.92, -10.91, -10.91, -10.91, -10.91, -10.79, -11.17, -11.17, -11.26, -11.44, -11.44, -11.82, -11.72, -11.72, -12.09, -11.99, -11.99, -11.99, -11.99, -11.52, -11.52, -11.52, -11.39, -11.72, -11.96, -11.72, -12.05, -11.69, -11.42, -11.42, -10.81, -10.45, -10.19, -9.84, -9.16, -8.87, -8.54, -8.87, -8.24, -8.59, -7.94, -8.3, -7.64, -7.68, -7.41, -7.06, -7.15, -6.79, -6.91, -6.52, -6.7, -6.44, -6.32, -6.8, -5.06, 0.0, 0.0, 0.0, 6.26, 4.43, 4.43, 3.45, 4.19, 3.91, 4.65, 5.2, 6.4, 7.6, 0.0, 0.0, 0.0, 0.0, 6.32, 2.69, 2.69, -0.0, 3.8, 6.01, 8.05, 8.06, 6.01, 4.6, 4.0, 6.4, 7.56, 6.21, 10.73, 4.65, 3.79, 4.02, 4.47, 2.84, 1.8, -0.0, -3.6, -4.24, -4.77, -4.77, -4.77, -10.91, -10.52, -10.91, -10.91, -10.79, -11.17, -11.17, -11.17, -11.44, -11.44, -11.82, -11.72, -12.09, -12.09, -11.62, -11.62, -11.62, -11.62, -11.35, -11.52, -11.52, -11.39, -11.72, -11.96, -11.72, -12.05, -11.69, -11.79, -11.42, -10.81, -11.16, -10.55, -10.19, -9.84, -8.87, -8.54, -8.53, -8.24, -8.59, -8.24, -7.94, -7.96, -7.64, -7.68, -7.41, -7.44, -7.15, -6.91, -6.55, -6.7, -6.28, -6.08, -5.37, 0.0, 0.0, 0.0, 0.0, 0.0, 4.43, 3.47, 4.02, 3.45, 3.91, 4.11, 4.8, 6.0, 7.15, 7.6, 0.0, 0.0, 0.0, 0.0, 6.32, 4.0, 3.8, 3.8, 3.6, 7.2, 8.05, 7.6, 4.71, 5.1, 6.01, 4.71, 2.19, 7.15, 3.93, 3.79, -4.92, -3.16, 0.0, 2.84, -0.0, -2.84, -4.0, -4.24, -4.24, -4.24, -10.52, -10.52, -10.52, -10.91, -10.61, -10.79, -11.17, -11.17, -11.44, -11.44, -11.82, -11.72, -12.09, -12.09, -11.88, -11.24, -11.24, -11.62, -11.99, -11.52, -11.52, -11.29, -11.72, -11.96, -11.96, -12.05, -11.69, -11.79, -11.42, -10.81, -11.16, -10.55, -10.19, -9.84, -9.2, -8.87, -8.87, -8.53, -8.24, -8.24, -8.24, -7.96, -7.96, -7.31, -7.33, -7.06, -7.44, -6.79, -6.91, -6.55, -6.28, -5.69, -5.37, -3.4, -3.2, 0.0, 0.0, 0.0, 6.26, 2.8, 3.0, 3.45, 3.45, 3.76, 4.11, 4.66, 6.71, 6.71, 4.74, 7.15, 0.0, 0.0, 8.05, 8.94, 4.2, 4.0, 3.8, 3.6, 7.2, 8.49, 6.01, 4.46, 4.46, 1.32, 5.6, 9.55, 5.7, 4.92, -4.4, -5.09, -4.66, 0.0, -0.0, -2.84, -4.0, -4.66, -4.66, -4.66, -10.52, -10.52, -10.52, -10.52, -10.61, -10.79, -10.79, -11.17, -11.06, -11.44, -11.82, -11.72, -12.09, -11.72, -11.34, -11.34, -11.72, -11.44, -11.81, -11.6, -11.29, -11.29, -11.72, -11.96, -11.96, -11.69, -11.69, -11.42, -11.42, -10.81, -11.16, -10.55, -10.55, -9.84, -9.56, -9.21, -8.87, -8.87, -8.86, -8.24, -8.24, -7.9, -7.61, -7.61, -7.31, -7.33, -7.06, -6.7, -6.79, -6.55, -6.18, -5.69, -4.83, -4.22, -3.4, -3.2, -4.74, 0.0, 0.0, 4.74, 3.0, 3.0, 3.45, 3.45, 4.11, 4.66, 7.15, 6.71, 6.71, 7.15, 5.06, -0.0, 6.71, 7.15, 8.94, 0.0, 6.01, 3.8, 3.8, 6.01, 8.49, 3.8, 2.54, 0.0, 5.6, 10.38, 7.15, 3.39, -1.6, -3.47, -4.02, -4.47, 0.0, -3.16, -4.0, -4.66, -4.66, -4.66, -10.52, -10.52, -10.52, -10.52, -10.61, -10.79, -10.79, -11.17, -11.06, -11.44, -11.99, -11.72, -11.72, -11.72, -11.34, -11.16, -11.53, -11.53, -11.23, -11.6, -11.6, -11.04, -11.72, -11.96, -12.27, -11.69, -11.69, -11.42, -11.42, -10.81, -11.16, -10.55, -10.55, -9.9, -9.56, -9.21, -9.21, -9.21, -8.86, -8.86, -8.24, -7.9, -7.9, -7.28, -7.28, -6.98, -6.98, -7.06, -6.39, -6.45, -6.01, -5.69, -4.83, -4.46, -4.22, -5.37, -5.06, -6.71, 0.0, 0.0, 3.0, 3.72, 2.49, 2.49, 2.8, 3.79, 4.92, 4.92, 7.15, 7.15, 5.06, -0.0, -0.0, 0.0, 7.15, 7.15, 0.0, -0.0, -0.0, -0.0, 0.0, 0.0, 1.49, 0.0, 0.0, 8.58, 7.21, 4.02, 3.13, -3.2, -2.84, -3.16, -3.16, -3.16, -4.66, -4.66, -4.66, -4.66, -10.52, -10.52, -10.52, -10.52, -10.24, -10.79, -10.79, -10.88, -11.06, -11.44, -11.61, -11.61, -11.61, -11.16, -10.79, -11.16, -11.53, -11.53, -11.53, -11.6, -11.6, -11.29, -11.04, -11.36, -11.9, -11.69, -11.63, -11.42, -11.42, -10.81, -10.79, -10.55, -10.55, -9.9, -9.56, -9.56, -9.21, -9.21, -9.21, -8.86, -8.24, -8.24, -7.9, -7.28, -7.28, -6.95, -6.98, -6.68, -6.32, -6.01, -6.01, -5.44, -5.69, -4.83, -5.69, -5.37, -6.8, -5.06, 0.0, 0.0, -0.0, 2.12, 3.0, 2.49, 3.0, 2.8, 5.81, 5.36, 7.15, 7.6, 5.37, -0.0, -0.0, -0.0, 8.49, 8.05, 0.0, -7.2, -7.6, -5.69, -8.05, 0.0, 3.72, 3.6, 0.0, 6.64, 3.83, 4.22, 2.86, -0.0, -2.0, -2.84, -2.84, -4.0, -4.66, -4.66, -4.66, -4.66, -10.13, -10.13, -10.52, -10.52, -10.24, -10.4, -10.79, -11.06, -10.68, -11.06, -11.06, -11.06, -11.06, -10.79, -10.79, -11.16, -11.53, -11.53, -11.53, -11.44, -11.81, -11.29, -11.29, -11.36, -11.36, -11.69, -11.63, -11.42, -11.05, -10.81, -10.79, -10.55, -10.55, -9.56, -9.56, -9.56, -9.21, -9.57, -9.21, -9.21, -8.59, -8.24, -8.24, -7.9, -7.61, -7.28, -6.98, -6.64, -6.68, -6.73, -5.53, -6.01, -5.03, -5.69, -6.44, -6.32, -5.37, -6.4, -7.15, 0.0, 0.0, -0.0, 2.12, 1.4, 1.73, 1.98, 4.11, 5.81, 5.81, 7.6, 8.05, 5.69, -0.0, 0.0, 8.49, 8.49, -0.0, -6.8, -7.81, -7.63, -7.21, 0.0, 4.11, 5.2, 0.0, 0.0, 2.53, 4.19, 3.84, 1.49, -0.79, -2.4, -3.0, -4.8, -4.24, -4.24, -4.24, -4.24, -10.13, -10.13, -10.13, -10.52, -10.02, -10.4, -10.4, -10.79, -10.68, -10.51, -11.06, -11.06, -11.06, -10.79, -10.79, -11.16, -11.72, -11.72, -11.72, -11.44, -11.44, -11.52, -11.29, -11.29, -11.36, -11.32, -11.09, -11.05, -11.05, -10.81, -10.45, -10.55, -10.55, -9.9, -9.56, -9.56, -9.21, -9.21, -9.21, -9.21, -8.94, -8.59, -8.24, -7.9, -7.61, -7.61, -7.31, -7.31, -7.02, -6.32, -6.32, -5.44, -6.01, -6.28, -6.44, -6.44, -6.32, -6.8, -6.4, -7.15, 0.0, 0.0, -0.0, 1.73, 1.73, 2.12, 2.8, 5.81, 5.81, 7.6, 8.05, 8.05, 7.6, 7.6, 5.69, 5.69, 3.4, -5.69, -7.63, -6.8, -7.21, -7.6, 0.0, 0.0, 0.0, 0.0, 2.0, 3.16, 3.79, 2.41, -0.0, -1.32, -3.47, -4.24, -4.24, -5.36, -5.36, -5.36, -10.13, -10.13, -10.13, -10.13, -10.02, -10.4, -10.4, -10.4, -10.13, -10.51, -10.51, -11.06, -11.06, -10.79, -10.79, -11.34, -11.34, -11.72, -11.72, -11.44, -11.44, -11.81, -11.52, -11.29, -11.23, -11.01, -11.09, -10.73, -11.05, -10.45, -10.45, -10.55, -10.55, -10.19, -9.56, -9.56, -8.9, -9.57, -9.21, -9.21, -8.59, -8.59, -8.24, -8.24, -7.61, -7.96, -7.31, -7.31, -7.02, -6.64, -6.32, -6.01, -6.52, -6.63, -6.28, -6.44, -6.32, -6.32, -6.4, -5.06, -7.15, 0.0, -0.0, -0.0, -0.0, -0.0, -0.0, -0.0, 6.26, 8.05, 8.05, 7.6, 7.15, 7.15, 3.2, -0.0, -0.0, -0.0, -6.8, -7.21, -7.63, -7.2, -8.49, 0.0, 0.0, 0.0, -0.0, 3.48, 4.19, 3.83, 3.72, -0.0, -2.73, -4.09, -5.51, -7.15, -7.15, -7.15, -9.74, -9.74, -9.74, -10.13, -10.02, -10.02, -10.02, -10.4, -10.13, -10.51, -10.51, -11.06, -11.06, -11.06, -10.79, -11.34, -11.72, -11.5, -11.88, -11.72, -11.44, -11.81, -11.81, -11.29, -11.23, -11.01, -10.65, -10.73, -10.73, -10.45, -10.45, -10.55, -10.19, -10.19, -9.56, -9.56, -9.21, -9.57, -9.57, -9.21, -8.93, -8.59, -8.59, -8.24, -7.94, -7.96, -7.64, -7.68, -7.35, -7.06, -7.06, -6.79, -6.52, -6.52, -6.28, -6.9, -6.44, -5.37, -6.32, -5.37, -5.37, -5.37, 0.0, -0.0, -0.0, -0.0, -0.0, -0.0, 0.0, 6.71, 6.71, 0.0, 7.6, 7.15, -0.0, -0.0, -0.0, -0.0, -0.0, -5.69, -7.2, -7.63, -8.49, -5.37, 0.0, 0.0, -9.39, 3.0, 4.89, 4.22, 4.4, 1.55, -0.0, -2.4, -7.6, -8.94, -8.94, -8.94, -9.74, -9.74, -9.74, -9.74, -9.48, -9.86, -9.86, -10.24, -10.4, -10.51, -10.51, -10.68, -11.06, -11.06, -10.79, -11.34, -11.5, -11.5, -11.34, -11.72, -11.44, -11.44, -11.6, -11.6, -11.23, -10.65, -10.65, -10.41, -10.37, -10.12, -10.45, -10.45, -9.84, -9.84, -9.56, -9.56, -9.21, -9.21, -9.21, -9.21, -8.93, -8.59, -8.59, -7.94, -7.94, -8.3, -7.97, -8.03, -7.68, -7.76, -7.06, -6.79, -7.28, -6.52, -7.07, -6.28, -5.69, -6.44, -5.69, -5.37, -5.37, -3.4, -5.37, 0.0, -0.0, -0.0, -0.0, -0.0, -0.0, 0.0, 0.0, 0.0, 0.0, 8.49, 5.06, -0.0, -0.0, -0.0, -0.0, -5.37, -7.63, -8.05, -8.05, -6.8, -5.37, -6.32, -6.64, 0.0, 4.74, 4.02, 3.79, 2.12, -0.0, -0.0, -6.32, -8.49, -8.49, -8.49, -9.74, -9.74, -9.74, -9.88, -9.48, -9.86, -9.86, -10.4, -10.4, -10.79, -10.68, -10.68, -11.06, -11.06, -11.22, -11.34, -11.5, -11.5, -11.34, -11.72, -11.72, -11.44, -11.44, -11.23, -11.23, -10.65, -10.65, -10.65, -10.06, -10.37, -10.12, -10.09, -9.84, -9.84, -9.56, -9.56, -9.21, -9.21, -8.87, -9.21, -8.86, -8.59, -8.59, -7.94, -8.27, -8.3, -7.97, -8.38, -7.68, -7.76, -7.06, -7.13, -6.79, -6.87, -6.52, -6.63, -6.28, -5.69, -5.69, -5.69, -4.46, -5.69, -5.69, -5.69, 0.0, -0.0, -0.0, -0.0, -0.0, 0.0, 0.0, 0.0, 4.74, 6.32, 7.15, -0.0, -0.0, -0.0, -0.0, -5.37, -7.6, -7.6, -7.6, -7.21, -6.4, -6.01, -6.32, -6.01, 0.0, -0.0, -0.0, -0.0, -0.0, -0.0, -8.49, -6.01, -6.01, -6.01, -9.74, -9.74, -9.74, -9.88, -9.48, -9.86, -9.86, -10.4, -10.4, -10.79, -10.68, -10.68, -11.06, -11.06, -11.22, -11.34, -11.5, -11.5, -11.34, -11.72, -11.72, -11.44, -11.44, -11.23, -11.23, -10.65, -10.65, -10.65, -10.06, -10.37, -10.12, -10.09, -9.84, -9.84, -9.56, -9.56, -9.21, -9.21, -8.87, -9.21, -8.86, -8.59, -8.59, -7.94, -8.27, -8.3, -7.97, -8.38, -7.68, -7.76, -7.06, -7.13, -6.79, -6.87, -6.52, -6.63, -6.28, -5.69, -5.69, -5.69, -4.46, -5.69, -5.69, -5.69, 0.0, -0.0, -0.0, -0.0, -0.0, 0.0, 0.0, 0.0, 4.74, 6.32, 7.15, -0.0, -0.0, -0.0, -0.0, -5.37, -7.6, -7.6, -7.37, -7.37, -5.95, -5.37, -6.01, -3.8, -3.8, 0.0, 0.0, -0.0, -0.0, -0.0, -8.49, -6.01, -6.01, -6.01]}]